Illinois River (Oklahoma), Tahlequah (07196500)

StateOklahomaLatestGood (1320 cfs)
RiverIllinois RiverRatingObservedEstimated
Updated2026-05-05 12:30 (59 minutes ago)Flood - The river is flooding. Obstacles can be treacherous or deadly. The river should be avoided at this stage for casual trips and definitely for the inexperienced. Trips should be attempted only with protective gear and equipment.Flood(none)3576
Discharge1320 cfs (median: 1090 cfs)High - The river is high and potentially dangerous, especially for the young and / or inexperienced. Normal stream obstacles are sometimes difficult to navigate. Extended distances can be attempted, but canoe travel may not be advisable.High(none)1816
Height6.34 feetGood - Conditions are ideal for a canoe or kayak. Boats typically will drag on fewer than one-quarter of riffles, if at all, and portages are unnecessary or rare. Normal float lengths can be attempted without a problem.Good300969
TrendFalling (falling over 24 hours)Low - River is low but can still be floated. Some riffles are okay but most come with significant dragging and might need a portage. Float lengths should be reduced to accommodate low flow, dragging, and portages.Low(none)623
USGSExternal icon USGS Site (External icon Duck Duck Go Maps)Poor - River is too low to float comfortably. Most or all riffles will drag or must be portaged and some obstacles (such as slick shelf rock) cause undue problems. Avoid the river at this stage for casual paddling trips.Poor(none)244

Trending Data

Plot Image

Trips for Illinois River (Oklahoma), Tahlequah (07196500)

DateStartEndDistanceConditionDischargeHeightFishingDetails
Click for details2011-10-30 Sparrow Hawk 6 Spark Hawk Campground Total trip distance: 6.0 miles6.0 Good 311 4.88 Great SMB
KSB
LSF
SMB, KSB, LSF
Fillmore, Brian
Fillmore, Rebecca
Fillmore, Brian; Fillmore, Rebecca
No notes for this trip<i>No notes for this trip</i> USGS Gauge Data:
Tahlequah (07196500)
Discharge: 311
Height: 4.88
<b>USGS Gauge Data:</b></br />Tahlequah (07196500)<br />Discharge: 311<br />Height: 4.88
Source: FillmoreSource: Fillmore

A total of 1 rows are displayed.

Trip Summary for Illinois River (Oklahoma), Tahlequah (07196500)

Miles6
Trips1
People2
Dates1
Years1
Months1
Rows1
Sources1

Condition Descriptions

Fishing Conditions

Fish Species

Notes

Classic Trip List

The classic River Trips application is still available for use. It is updated with the new system using a data retrofit. It is no longer maintained. The original River Trips application is no longer updated (as of 1 Dec 2016) but can be checked for errors or for the condition of the data before it was converted to the new system.

Gauge Data Table

ObservationHeightDischargeMaximum
Discharge
Minimum
Discharge
Mean
Discharge
P05P10P20P25P50
(Median)
P75P80P90P95
2026-05-05 12:30 6.34 1320 34500 (2022) 204 (1936) 2240 263 335 434 494 1090 2050 2540 4540 8040
2026-05-05 11:30 6.36 1340 34500 (2022) 204 (1936) 2240 263 335 434 494 1090 2050 2540 4540 8040
2026-05-05 10:30 6.37 1350 34500 (2022) 204 (1936) 2240 263 335 434 494 1090 2050 2540 4540 8040
2026-05-05 09:30 6.37 1350 34500 (2022) 204 (1936) 2240 263 335 434 494 1090 2050 2540 4540 8040
2026-05-05 08:30 6.39 1380 34500 (2022) 204 (1936) 2240 263 335 434 494 1090 2050 2540 4540 8040
2026-05-05 07:30 6.39 1380 34500 (2022) 204 (1936) 2240 263 335 434 494 1090 2050 2540 4540 8040
2026-05-05 06:30 6.40 1390 34500 (2022) 204 (1936) 2240 263 335 434 494 1090 2050 2540 4540 8040
2026-05-05 05:30 6.40 1390 34500 (2022) 204 (1936) 2240 263 335 434 494 1090 2050 2540 4540 8040
2026-05-05 04:30 6.40 1390 34500 (2022) 204 (1936) 2240 263 335 434 494 1090 2050 2540 4540 8040
2026-05-05 03:30 6.41 1400 34500 (2022) 204 (1936) 2240 263 335 434 494 1090 2050 2540 4540 8040
2026-05-05 02:30 6.42 1410 34500 (2022) 204 (1936) 2240 263 335 434 494 1090 2050 2540 4540 8040
2026-05-05 01:30 6.41 1400 34500 (2022) 204 (1936) 2240 263 335 434 494 1090 2050 2540 4540 8040
2026-05-05 00:30 6.42 1410 34500 (2022) 204 (1936) 2240 263 335 434 494 1090 2050 2540 4540 8040
2026-05-04 23:30 6.43 1420 34500 (2022) 204 (1936) 2240 263 335 434 494 1090 2050 2540 4540 8040
2026-05-04 22:30 6.44 1430 43100 (1990) 196 (1936) 2320 274 335 450 550 1150 2490 2760 4530 8610
2026-05-04 21:30 6.44 1430 43100 (1990) 196 (1936) 2320 274 335 450 550 1150 2490 2760 4530 8610
2026-05-04 20:30 6.46 1460 43100 (1990) 196 (1936) 2320 274 335 450 550 1150 2490 2760 4530 8610
2026-05-04 19:30 6.46 1460 43100 (1990) 196 (1936) 2320 274 335 450 550 1150 2490 2760 4530 8610
2026-05-04 18:30 6.47 1470 43100 (1990) 196 (1936) 2320 274 335 450 550 1150 2490 2760 4530 8610
2026-05-04 17:30 6.48 1480 43100 (1990) 196 (1936) 2320 274 335 450 550 1150 2490 2760 4530 8610
2026-05-04 16:30 6.49 1490 43100 (1990) 196 (1936) 2320 274 335 450 550 1150 2490 2760 4530 8610
2026-05-04 15:30 6.52 1530 43100 (1990) 196 (1936) 2320 274 335 450 550 1150 2490 2760 4530 8610
2026-05-04 14:30 6.50 1500 43100 (1990) 196 (1936) 2320 274 335 450 550 1150 2490 2760 4530 8610
2026-05-04 13:30 6.53 1540 43100 (1990) 196 (1936) 2320 274 335 450 550 1150 2490 2760 4530 8610
2026-05-04 12:30 6.54 1550 43100 (1990) 196 (1936) 2320 274 335 450 550 1150 2490 2760 4530 8610
2026-05-04 11:30 6.54 1550 43100 (1990) 196 (1936) 2320 274 335 450 550 1150 2490 2760 4530 8610
2026-05-04 10:30 6.56 1580 43100 (1990) 196 (1936) 2320 274 335 450 550 1150 2490 2760 4530 8610
2026-05-04 09:30 6.56 1580 43100 (1990) 196 (1936) 2320 274 335 450 550 1150 2490 2760 4530 8610
2026-05-04 08:30 6.58 1600 43100 (1990) 196 (1936) 2320 274 335 450 550 1150 2490 2760 4530 8610
2026-05-04 07:30 6.58 1600 43100 (1990) 196 (1936) 2320 274 335 450 550 1150 2490 2760 4530 8610
2026-05-04 06:30 6.59 1610 43100 (1990) 196 (1936) 2320 274 335 450 550 1150 2490 2760 4530 8610
2026-05-04 05:30 6.60 1630 43100 (1990) 196 (1936) 2320 274 335 450 550 1150 2490 2760 4530 8610
2026-05-04 04:30 6.61 1640 43100 (1990) 196 (1936) 2320 274 335 450 550 1150 2490 2760 4530 8610
2026-05-04 03:30 6.61 1640 43100 (1990) 196 (1936) 2320 274 335 450 550 1150 2490 2760 4530 8610
2026-05-04 01:30 6.62 1650 43100 (1990) 196 (1936) 2320 274 335 450 550 1150 2490 2760 4530 8610
2026-05-04 00:30 6.65 1690 43100 (1990) 196 (1936) 2320 274 335 450 550 1150 2490 2760 4530 8610
2026-05-03 23:30 6.64 1680 43100 (1990) 196 (1936) 2320 274 335 450 550 1150 2490 2760 4530 8610
2026-05-03 22:30 6.66 1700 19800 (1990) 189 (1936) 2060 286 342 469 581 1110 2090 2770 5250 7670
2026-05-03 21:30 6.66 1700 19800 (1990) 189 (1936) 2060 286 342 469 581 1110 2090 2770 5250 7670
2026-05-03 20:30 6.68 1730 19800 (1990) 189 (1936) 2060 286 342 469 581 1110 2090 2770 5250 7670
2026-05-03 19:30 6.69 1740 19800 (1990) 189 (1936) 2060 286 342 469 581 1110 2090 2770 5250 7670
2026-05-03 18:30 6.70 1750 19800 (1990) 189 (1936) 2060 286 342 469 581 1110 2090 2770 5250 7670
2026-05-03 17:30 6.71 1770 19800 (1990) 189 (1936) 2060 286 342 469 581 1110 2090 2770 5250 7670
2026-05-03 16:30 6.72 1780 19800 (1990) 189 (1936) 2060 286 342 469 581 1110 2090 2770 5250 7670
2026-05-03 15:30 6.74 1810 19800 (1990) 189 (1936) 2060 286 342 469 581 1110 2090 2770 5250 7670
2026-05-03 14:30 6.75 1820 19800 (1990) 189 (1936) 2060 286 342 469 581 1110 2090 2770 5250 7670
2026-05-03 13:30 6.77 1850 19800 (1990) 189 (1936) 2060 286 342 469 581 1110 2090 2770 5250 7670
2026-05-03 12:30 6.78 1860 19800 (1990) 189 (1936) 2060 286 342 469 581 1110 2090 2770 5250 7670
2026-05-03 11:30 6.79 1880 19800 (1990) 189 (1936) 2060 286 342 469 581 1110 2090 2770 5250 7670
2026-05-03 10:30 6.79 1880 19800 (1990) 189 (1936) 2060 286 342 469 581 1110 2090 2770 5250 7670
2026-05-03 09:30 6.82 1920 19800 (1990) 189 (1936) 2060 286 342 469 581 1110 2090 2770 5250 7670
2026-05-03 08:30 6.83 1930 19800 (1990) 189 (1936) 2060 286 342 469 581 1110 2090 2770 5250 7670
2026-05-03 07:30 6.84 1950 19800 (1990) 189 (1936) 2060 286 342 469 581 1110 2090 2770 5250 7670
2026-05-03 06:30 6.85 1960 19800 (1990) 189 (1936) 2060 286 342 469 581 1110 2090 2770 5250 7670
2026-05-03 05:30 6.86 1980 19800 (1990) 189 (1936) 2060 286 342 469 581 1110 2090 2770 5250 7670
2026-05-03 04:30 6.87 1990 19800 (1990) 189 (1936) 2060 286 342 469 581 1110 2090 2770 5250 7670
2026-05-03 03:30 6.89 2020 19800 (1990) 189 (1936) 2060 286 342 469 581 1110 2090 2770 5250 7670
2026-05-03 02:30 6.91 2050 19800 (1990) 189 (1936) 2060 286 342 469 581 1110 2090 2770 5250 7670
2026-05-03 01:30 6.91 2050 19800 (1990) 189 (1936) 2060 286 342 469 581 1110 2090 2770 5250 7670
2026-05-03 00:30 6.90 2040 19800 (1990) 189 (1936) 2060 286 342 469 581 1110 2090 2770 5250 7670
2026-05-02 23:30 6.93 2080 19800 (1990) 189 (1936) 2060 286 342 469 581 1110 2090 2770 5250 7670
2026-05-02 22:30 6.94 2100 13800 (1970) 189 (1936) 1980 301 356 492 567 1000 2230 2980 4680 7530
2026-05-02 21:30 6.95 2110 13800 (1970) 189 (1936) 1980 301 356 492 567 1000 2230 2980 4680 7530
2026-05-02 20:30 6.96 2130 13800 (1970) 189 (1936) 1980 301 356 492 567 1000 2230 2980 4680 7530
2026-05-02 19:30 6.97 2140 13800 (1970) 189 (1936) 1980 301 356 492 567 1000 2230 2980 4680 7530
2026-05-02 18:30 6.98 2160 13800 (1970) 189 (1936) 1980 301 356 492 567 1000 2230 2980 4680 7530
2026-05-02 17:30 7.00 2190 13800 (1970) 189 (1936) 1980 301 356 492 567 1000 2230 2980 4680 7530
2026-05-02 16:30 7.01 2200 13800 (1970) 189 (1936) 1980 301 356 492 567 1000 2230 2980 4680 7530
2026-05-02 15:30 7.03 2230 13800 (1970) 189 (1936) 1980 301 356 492 567 1000 2230 2980 4680 7530
2026-05-02 14:30 7.05 2270 13800 (1970) 189 (1936) 1980 301 356 492 567 1000 2230 2980 4680 7530
2026-05-02 13:30 7.07 2300 13800 (1970) 189 (1936) 1980 301 356 492 567 1000 2230 2980 4680 7530
2026-05-02 12:30 7.09 2330 13800 (1970) 189 (1936) 1980 301 356 492 567 1000 2230 2980 4680 7530
2026-05-02 11:30 7.09 2330 13800 (1970) 189 (1936) 1980 301 356 492 567 1000 2230 2980 4680 7530
2026-05-02 10:30 7.11 2360 13800 (1970) 189 (1936) 1980 301 356 492 567 1000 2230 2980 4680 7530
2026-05-02 09:30 7.12 2380 13800 (1970) 189 (1936) 1980 301 356 492 567 1000 2230 2980 4680 7530
2026-05-02 08:30 7.15 2420 13800 (1970) 189 (1936) 1980 301 356 492 567 1000 2230 2980 4680 7530
2026-05-02 07:30 7.16 2440 13800 (1970) 189 (1936) 1980 301 356 492 567 1000 2230 2980 4680 7530
2026-05-02 06:30 7.18 2470 13800 (1970) 189 (1936) 1980 301 356 492 567 1000 2230 2980 4680 7530
2026-05-02 05:30 7.19 2490 13800 (1970) 189 (1936) 1980 301 356 492 567 1000 2230 2980 4680 7530
2026-05-02 04:30 7.22 2540 13800 (1970) 189 (1936) 1980 301 356 492 567 1000 2230 2980 4680 7530
2026-05-02 03:30 7.21 2520 13800 (1970) 189 (1936) 1980 301 356 492 567 1000 2230 2980 4680 7530
2026-05-02 02:30 7.25 2590 13800 (1970) 189 (1936) 1980 301 356 492 567 1000 2230 2980 4680 7530
2026-05-02 01:30 7.25 2590 13800 (1970) 189 (1936) 1980 301 356 492 567 1000 2230 2980 4680 7530
2026-05-02 00:30 7.28 2640 13800 (1970) 189 (1936) 1980 301 356 492 567 1000 2230 2980 4680 7530
2026-05-01 23:30 7.30 2670 13800 (1970) 189 (1936) 1980 301 356 492 567 1000 2230 2980 4680 7530
2026-05-01 22:30 7.31 2690 47900 (2017) 182 (1936) 2190 312 356 472 570 1170 2160 2390 3830 5220
2026-05-01 21:30 7.33 2730 47900 (2017) 182 (1936) 2190 312 356 472 570 1170 2160 2390 3830 5220
2026-05-01 20:30 7.36 2780 47900 (2017) 182 (1936) 2190 312 356 472 570 1170 2160 2390 3830 5220
2026-05-01 19:30 7.38 2810 47900 (2017) 182 (1936) 2190 312 356 472 570 1170 2160 2390 3830 5220
2026-05-01 18:30 7.38 2810 47900 (2017) 182 (1936) 2190 312 356 472 570 1170 2160 2390 3830 5220
2026-05-01 17:30 7.40 2850 47900 (2017) 182 (1936) 2190 312 356 472 570 1170 2160 2390 3830 5220
2026-05-01 16:30 7.44 2920 47900 (2017) 182 (1936) 2190 312 356 472 570 1170 2160 2390 3830 5220
2026-05-01 15:30 7.45 2940 47900 (2017) 182 (1936) 2190 312 356 472 570 1170 2160 2390 3830 5220
2026-05-01 14:30 7.48 2990 47900 (2017) 182 (1936) 2190 312 356 472 570 1170 2160 2390 3830 5220
2026-05-01 13:30 7.49 3010 47900 (2017) 182 (1936) 2190 312 356 472 570 1170 2160 2390 3830 5220
2026-05-01 12:30 7.52 3070 47900 (2017) 182 (1936) 2190 312 356 472 570 1170 2160 2390 3830 5220
2026-05-01 11:30 7.53 3090 47900 (2017) 182 (1936) 2190 312 356 472 570 1170 2160 2390 3830 5220
2026-05-01 10:30 7.57 3160 47900 (2017) 182 (1936) 2190 312 356 472 570 1170 2160 2390 3830 5220
2026-05-01 09:30 7.58 3180 47900 (2017) 182 (1936) 2190 312 356 472 570 1170 2160 2390 3830 5220
2026-05-01 08:30 7.60 3220 47900 (2017) 182 (1936) 2190 312 356 472 570 1170 2160 2390 3830 5220
2026-05-01 07:30 7.63 3270 47900 (2017) 182 (1936) 2190 312 356 472 570 1170 2160 2390 3830 5220
2026-05-01 06:30 7.67 3340 47900 (2017) 182 (1936) 2190 312 356 472 570 1170 2160 2390 3830 5220
2026-05-01 05:30 7.68 3360 47900 (2017) 182 (1936) 2190 312 356 472 570 1170 2160 2390 3830 5220
2026-05-01 04:30 7.70 3400 47900 (2017) 182 (1936) 2190 312 356 472 570 1170 2160 2390 3830 5220
2026-05-01 03:30 7.72 3440 47900 (2017) 182 (1936) 2190 312 356 472 570 1170 2160 2390 3830 5220
2026-05-01 02:30 7.76 3510 47900 (2017) 182 (1936) 2190 312 356 472 570 1170 2160 2390 3830 5220
2026-05-01 01:30 7.79 3570 47900 (2017) 182 (1936) 2190 312 356 472 570 1170 2160 2390 3830 5220
2026-05-01 00:30 7.82 3620 47900 (2017) 182 (1936) 2190 312 356 472 570 1170 2160 2390 3830 5220
2026-04-30 23:30 7.87 3720 47900 (2017) 182 (1936) 2190 312 356 472 570 1170 2160 2390 3830 5220
2026-04-30 22:30 7.91 3790 68600 (2017) 179 (1954) 2390 292 335 491 545 994 1990 2290 3140 5520
2026-04-30 21:30 7.96 3880 68600 (2017) 179 (1954) 2390 292 335 491 545 994 1990 2290 3140 5520
2026-04-30 20:30 7.98 3920 68600 (2017) 179 (1954) 2390 292 335 491 545 994 1990 2290 3140 5520
2026-04-30 19:30 8.03 4010 68600 (2017) 179 (1954) 2390 292 335 491 545 994 1990 2290 3140 5520
2026-04-30 18:30 8.08 4110 68600 (2017) 179 (1954) 2390 292 335 491 545 994 1990 2290 3140 5520
2026-04-30 17:30 8.11 4170 68600 (2017) 179 (1954) 2390 292 335 491 545 994 1990 2290 3140 5520
2026-04-30 16:30 8.17 4280 68600 (2017) 179 (1954) 2390 292 335 491 545 994 1990 2290 3140 5520
2026-04-30 15:30 8.21 4350 68600 (2017) 179 (1954) 2390 292 335 491 545 994 1990 2290 3140 5520
2026-04-30 14:30 8.25 4430 68600 (2017) 179 (1954) 2390 292 335 491 545 994 1990 2290 3140 5520
2026-04-30 13:30 8.31 4540 68600 (2017) 179 (1954) 2390 292 335 491 545 994 1990 2290 3140 5520
2026-04-30 12:30 8.38 4680 68600 (2017) 179 (1954) 2390 292 335 491 545 994 1990 2290 3140 5520
2026-04-30 11:30 8.41 4740 68600 (2017) 179 (1954) 2390 292 335 491 545 994 1990 2290 3140 5520
2026-04-30 10:30 8.50 4910 68600 (2017) 179 (1954) 2390 292 335 491 545 994 1990 2290 3140 5520
2026-04-30 09:30 8.54 4990 68600 (2017) 179 (1954) 2390 292 335 491 545 994 1990 2290 3140 5520
2026-04-30 08:30 8.64 5180 68600 (2017) 179 (1954) 2390 292 335 491 545 994 1990 2290 3140 5520
2026-04-30 07:30 8.71 5320 68600 (2017) 179 (1954) 2390 292 335 491 545 994 1990 2290 3140 5520
2026-04-30 06:30 8.76 5420 68600 (2017) 179 (1954) 2390 292 335 491 545 994 1990 2290 3140 5520
2026-04-30 05:30 8.87 5630 68600 (2017) 179 (1954) 2390 292 335 491 545 994 1990 2290 3140 5520
2026-04-30 04:30 8.95 5790 68600 (2017) 179 (1954) 2390 292 335 491 545 994 1990 2290 3140 5520
2026-04-30 03:30 9.03 5950 68600 (2017) 179 (1954) 2390 292 335 491 545 994 1990 2290 3140 5520
2026-04-30 02:30 9.10 6090 68600 (2017) 179 (1954) 2390 292 335 491 545 994 1990 2290 3140 5520
2026-04-30 01:30 9.12 6130 68600 (2017) 179 (1954) 2390 292 335 491 545 994 1990 2290 3140 5520
2026-04-30 00:30 9.14 6170 68600 (2017) 179 (1954) 2390 292 335 491 545 994 1990 2290 3140 5520
2026-04-29 23:30 9.09 6070 68600 (2017) 179 (1954) 2390 292 335 491 545 994 1990 2290 3140 5520
2026-04-29 22:30 9.02 5930 37400 (2021) 128 (1954) 2030 293 348 456 569 965 1610 1840 3500 7060
2026-04-29 21:30 8.87 5630 37400 (2021) 128 (1954) 2030 293 348 456 569 965 1610 1840 3500 7060
2026-04-29 20:30 8.73 5360 37400 (2021) 128 (1954) 2030 293 348 456 569 965 1610 1840 3500 7060
2026-04-29 19:30 8.59 5080 37400 (2021) 128 (1954) 2030 293 348 456 569 965 1610 1840 3500 7060
2026-04-29 18:30 8.50 4910 37400 (2021) 128 (1954) 2030 293 348 456 569 965 1610 1840 3500 7060
2026-04-29 17:30 8.42 4760 37400 (2021) 128 (1954) 2030 293 348 456 569 965 1610 1840 3500 7060
2026-04-29 16:30 8.39 4700 37400 (2021) 128 (1954) 2030 293 348 456 569 965 1610 1840 3500 7060
2026-04-29 15:30 8.35 4620 37400 (2021) 128 (1954) 2030 293 348 456 569 965 1610 1840 3500 7060
2026-04-29 14:30 8.29 4510 37400 (2021) 128 (1954) 2030 293 348 456 569 965 1610 1840 3500 7060
2026-04-29 13:30 8.22 4370 37400 (2021) 128 (1954) 2030 293 348 456 569 965 1610 1840 3500 7060
2026-04-29 12:30 8.17 4280 37400 (2021) 128 (1954) 2030 293 348 456 569 965 1610 1840 3500 7060
2026-04-29 11:30 8.16 4260 37400 (2021) 128 (1954) 2030 293 348 456 569 965 1610 1840 3500 7060
2026-04-29 10:30 8.17 4280 37400 (2021) 128 (1954) 2030 293 348 456 569 965 1610 1840 3500 7060
2026-04-29 09:30 8.21 4350 37400 (2021) 128 (1954) 2030 293 348 456 569 965 1610 1840 3500 7060
2026-04-29 08:30 8.20 4340 37400 (2021) 128 (1954) 2030 293 348 456 569 965 1610 1840 3500 7060
2026-04-29 07:30 8.25 4430 37400 (2021) 128 (1954) 2030 293 348 456 569 965 1610 1840 3500 7060
2026-04-29 06:30 8.30 4530 37400 (2021) 128 (1954) 2030 293 348 456 569 965 1610 1840 3500 7060
2026-04-29 05:30 8.35 4620 37400 (2021) 128 (1954) 2030 293 348 456 569 965 1610 1840 3500 7060
2026-04-29 04:30 8.39 4700 37400 (2021) 128 (1954) 2030 293 348 456 569 965 1610 1840 3500 7060
2026-04-29 03:30 8.42 4760 37400 (2021) 128 (1954) 2030 293 348 456 569 965 1610 1840 3500 7060
2026-04-29 02:30 8.43 4780 37400 (2021) 128 (1954) 2030 293 348 456 569 965 1610 1840 3500 7060
2026-04-29 01:30 8.41 4740 37400 (2021) 128 (1954) 2030 293 348 456 569 965 1610 1840 3500 7060
2026-04-29 00:30 8.34 4600 37400 (2021) 128 (1954) 2030 293 348 456 569 965 1610 1840 3500 7060
2026-04-28 23:30 8.28 4490 37400 (2021) 128 (1954) 2030 293 348 456 569 965 1610 1840 3500 7060
2026-04-28 22:30 8.23 4390 13200 (1942) 132 (1954) 1600 296 354 462 526 928 1760 1950 3460 4990
2026-04-28 21:30 8.21 4350 13200 (1942) 132 (1954) 1600 296 354 462 526 928 1760 1950 3460 4990
2026-04-28 20:30 8.13 4200 13200 (1942) 132 (1954) 1600 296 354 462 526 928 1760 1950 3460 4990
2026-04-28 19:30 8.07 4090 13200 (1942) 132 (1954) 1600 296 354 462 526 928 1760 1950 3460 4990
2026-04-28 18:30 8.04 4030 13200 (1942) 132 (1954) 1600 296 354 462 526 928 1760 1950 3460 4990
2026-04-28 17:30 8.01 3980 13200 (1942) 132 (1954) 1600 296 354 462 526 928 1760 1950 3460 4990
2026-04-28 16:30 7.93 3830 13200 (1942) 132 (1954) 1600 296 354 462 526 928 1760 1950 3460 4990
2026-04-28 15:30 7.95 3860 13200 (1942) 132 (1954) 1600 296 354 462 526 928 1760 1950 3460 4990
2026-04-28 14:30 7.98 3920 13200 (1942) 132 (1954) 1600 296 354 462 526 928 1760 1950 3460 4990
2026-04-28 13:30 8.01 3980 13200 (1942) 132 (1954) 1600 296 354 462 526 928 1760 1950 3460 4990
2026-04-28 12:30 8.04 4030 13200 (1942) 132 (1954) 1600 296 354 462 526 928 1760 1950 3460 4990
2026-04-28 11:30 8.07 4090 13200 (1942) 132 (1954) 1600 296 354 462 526 928 1760 1950 3460 4990
2026-04-28 10:30 8.11 4170 13200 (1942) 132 (1954) 1600 296 354 462 526 928 1760 1950 3460 4990
2026-04-28 09:30 8.13 4200 13200 (1942) 132 (1954) 1600 296 354 462 526 928 1760 1950 3460 4990
2026-04-28 08:30 8.17 4280 13200 (1942) 132 (1954) 1600 296 354 462 526 928 1760 1950 3460 4990
2026-04-28 07:30 8.21 4350 13200 (1942) 132 (1954) 1600 296 354 462 526 928 1760 1950 3460 4990
2026-04-28 06:30 8.25 4430 13200 (1942) 132 (1954) 1600 296 354 462 526 928 1760 1950 3460 4990
2026-04-28 05:30 8.30 4530 13200 (1942) 132 (1954) 1600 296 354 462 526 928 1760 1950 3460 4990
2026-04-28 04:30 8.36 4640 13200 (1942) 132 (1954) 1600 296 354 462 526 928 1760 1950 3460 4990
2026-04-28 02:30 8.43 4780 13200 (1942) 132 (1954) 1600 296 354 462 526 928 1760 1950 3460 4990
2026-04-28 01:30 8.49 4890 13200 (1942) 132 (1954) 1600 296 354 462 526 928 1760 1950 3460 4990
2026-04-28 00:30 8.53 4970 13200 (1942) 132 (1954) 1600 296 354 462 526 928 1760 1950 3460 4990
2026-04-27 23:30 8.59 5080 13200 (1942) 132 (1954) 1600 296 354 462 526 928 1760 1950 3460 4990
2026-04-27 22:30 8.65 5200 38300 (2011) 140 (1954) 1940 295 345 461 507 937 1720 2070 4990 6110
2026-04-27 21:30 8.71 5320 38300 (2011) 140 (1954) 1940 295 345 461 507 937 1720 2070 4990 6110
2026-04-27 20:30 8.78 5460 38300 (2011) 140 (1954) 1940 295 345 461 507 937 1720 2070 4990 6110
2026-04-27 19:30 8.84 5570 38300 (2011) 140 (1954) 1940 295 345 461 507 937 1720 2070 4990 6110
2026-04-27 18:30 8.91 5710 38300 (2011) 140 (1954) 1940 295 345 461 507 937 1720 2070 4990 6110
2026-04-27 17:30 9.00 5890 38300 (2011) 140 (1954) 1940 295 345 461 507 937 1720 2070 4990 6110
2026-04-27 16:30 9.08 6050 38300 (2011) 140 (1954) 1940 295 345 461 507 937 1720 2070 4990 6110
2026-04-27 15:30 9.21 6310 38300 (2011) 140 (1954) 1940 295 345 461 507 937 1720 2070 4990 6110
2026-04-27 14:30 9.31 6510 38300 (2011) 140 (1954) 1940 295 345 461 507 937 1720 2070 4990 6110
2026-04-27 13:30 9.43 6760 38300 (2011) 140 (1954) 1940 295 345 461 507 937 1720 2070 4990 6110
2026-04-27 12:30 9.56 7020 38300 (2011) 140 (1954) 1940 295 345 461 507 937 1720 2070 4990 6110
2026-04-27 11:30 9.73 7370 38300 (2011) 140 (1954) 1940 295 345 461 507 937 1720 2070 4990 6110
2026-04-27 10:30 9.89 7700 38300 (2011) 140 (1954) 1940 295 345 461 507 937 1720 2070 4990 6110
2026-04-27 09:30 10.04 8020 38300 (2011) 140 (1954) 1940 295 345 461 507 937 1720 2070 4990 6110
2026-04-27 08:30 10.25 8470 38300 (2011) 140 (1954) 1940 295 345 461 507 937 1720 2070 4990 6110
2026-04-27 07:30 10.41 8820 38300 (2011) 140 (1954) 1940 295 345 461 507 937 1720 2070 4990 6110
2026-04-27 06:30 10.54 9110 38300 (2011) 140 (1954) 1940 295 345 461 507 937 1720 2070 4990 6110
2026-04-27 05:30 10.58 9200 38300 (2011) 140 (1954) 1940 295 345 461 507 937 1720 2070 4990 6110
2026-04-27 04:30 10.57 9170 38300 (2011) 140 (1954) 1940 295 345 461 507 937 1720 2070 4990 6110
2026-04-27 03:30 10.49 9000 38300 (2011) 140 (1954) 1940 295 345 461 507 937 1720 2070 4990 6110
2026-04-27 02:30 10.38 8750 38300 (2011) 140 (1954) 1940 295 345 461 507 937 1720 2070 4990 6110
2026-04-27 01:30 10.21 8380 38300 (2011) 140 (1954) 1940 295 345 461 507 937 1720 2070 4990 6110
2026-04-27 00:30 10.06 8060 38300 (2011) 140 (1954) 1940 295 345 461 507 937 1720 2070 4990 6110
2026-04-26 23:30 9.87 7660 38300 (2011) 140 (1954) 1940 295 345 461 507 937 1720 2070 4990 6110
2026-04-26 22:30 9.70 7310 77900 (2011) 144 (1954) 2500 244 352 477 516 1010 2060 2400 4120 6670
2026-04-26 21:30 9.56 7020 77900 (2011) 144 (1954) 2500 244 352 477 516 1010 2060 2400 4120 6670
2026-04-26 20:30 9.50 6900 77900 (2011) 144 (1954) 2500 244 352 477 516 1010 2060 2400 4120 6670
2026-04-26 19:30 9.42 6740 77900 (2011) 144 (1954) 2500 244 352 477 516 1010 2060 2400 4120 6670
2026-04-26 18:30 9.33 6550 77900 (2011) 144 (1954) 2500 244 352 477 516 1010 2060 2400 4120 6670
2026-04-26 17:30 9.21 6310 77900 (2011) 144 (1954) 2500 244 352 477 516 1010 2060 2400 4120 6670
2026-04-26 16:30 9.12 6130 77900 (2011) 144 (1954) 2500 244 352 477 516 1010 2060 2400 4120 6670
2026-04-26 15:30 9.02 5930 77900 (2011) 144 (1954) 2500 244 352 477 516 1010 2060 2400 4120 6670
2026-04-26 14:30 8.92 5730 77900 (2011) 144 (1954) 2500 244 352 477 516 1010 2060 2400 4120 6670
2026-04-26 13:30 8.81 5510 77900 (2011) 144 (1954) 2500 244 352 477 516 1010 2060 2400 4120 6670
2026-04-26 12:30 8.73 5360 77900 (2011) 144 (1954) 2500 244 352 477 516 1010 2060 2400 4120 6670
2026-04-26 11:30 8.68 5260 77900 (2011) 144 (1954) 2500 244 352 477 516 1010 2060 2400 4120 6670
2026-04-26 10:30 8.67 5240 77900 (2011) 144 (1954) 2500 244 352 477 516 1010 2060 2400 4120 6670
2026-04-26 09:30 8.65 5200 77900 (2011) 144 (1954) 2500 244 352 477 516 1010 2060 2400 4120 6670
2026-04-26 08:30 8.65 5200 77900 (2011) 144 (1954) 2500 244 352 477 516 1010 2060 2400 4120 6670
2026-04-26 07:30 8.67 5240 77900 (2011) 144 (1954) 2500 244 352 477 516 1010 2060 2400 4120 6670
2026-04-26 06:30 8.64 5180 77900 (2011) 144 (1954) 2500 244 352 477 516 1010 2060 2400 4120 6670
2026-04-26 05:30 8.65 5200 77900 (2011) 144 (1954) 2500 244 352 477 516 1010 2060 2400 4120 6670
2026-04-26 04:30 8.67 5240 77900 (2011) 144 (1954) 2500 244 352 477 516 1010 2060 2400 4120 6670
2026-04-26 03:30 8.70 5300 77900 (2011) 144 (1954) 2500 244 352 477 516 1010 2060 2400 4120 6670
2026-04-26 02:30 8.75 5400 77900 (2011) 144 (1954) 2500 244 352 477 516 1010 2060 2400 4120 6670
2026-04-26 01:30 8.79 5470 77900 (2011) 144 (1954) 2500 244 352 477 516 1010 2060 2400 4120 6670
2026-04-26 00:30 8.82 5530 77900 (2011) 144 (1954) 2500 244 352 477 516 1010 2060 2400 4120 6670
2026-04-25 23:30 8.90 5690 77900 (2011) 144 (1954) 2500 244 352 477 516 1010 2060 2400 4120 6670
2026-04-25 22:30 8.99 5870 40200 (2011) 148 (1954) 2330 243 360 499 532 980 2050 2720 4280 7470
2026-04-25 21:30 8.97 5830 40200 (2011) 148 (1954) 2330 243 360 499 532 980 2050 2720 4280 7470
2026-04-25 20:30 9.11 6110 40200 (2011) 148 (1954) 2330 243 360 499 532 980 2050 2720 4280 7470
2026-04-25 19:30 9.23 6350 40200 (2011) 148 (1954) 2330 243 360 499 532 980 2050 2720 4280 7470
2026-04-25 18:30 9.39 6670 40200 (2011) 148 (1954) 2330 243 360 499 532 980 2050 2720 4280 7470
2026-04-25 17:30 9.53 6960 40200 (2011) 148 (1954) 2330 243 360 499 532 980 2050 2720 4280 7470
2026-04-25 16:30 9.74 7390 40200 (2011) 148 (1954) 2330 243 360 499 532 980 2050 2720 4280 7470
2026-04-25 15:30 9.91 7750 40200 (2011) 148 (1954) 2330 243 360 499 532 980 2050 2720 4280 7470
2026-04-25 14:30 10.11 8170 40200 (2011) 148 (1954) 2330 243 360 499 532 980 2050 2720 4280 7470
2026-04-25 13:30 10.23 8420 40200 (2011) 148 (1954) 2330 243 360 499 532 980 2050 2720 4280 7470
2026-04-25 12:30 10.32 8620 40200 (2011) 148 (1954) 2330 243 360 499 532 980 2050 2720 4280 7470
2026-04-25 11:30 10.31 8600 40200 (2011) 148 (1954) 2330 243 360 499 532 980 2050 2720 4280 7470
2026-04-25 10:30 10.23 8420 40200 (2011) 148 (1954) 2330 243 360 499 532 980 2050 2720 4280 7470
2026-04-25 09:30 10.12 8190 40200 (2011) 148 (1954) 2330 243 360 499 532 980 2050 2720 4280 7470
2026-04-25 08:30 9.94 7810 40200 (2011) 148 (1954) 2330 243 360 499 532 980 2050 2720 4280 7470
2026-04-25 07:30 9.63 7170 40200 (2011) 148 (1954) 2330 243 360 499 532 980 2050 2720 4280 7470
2026-04-25 06:30 9.31 6510 40200 (2011) 148 (1954) 2330 243 360 499 532 980 2050 2720 4280 7470
2026-04-25 05:30 9.00 5890 40200 (2011) 148 (1954) 2330 243 360 499 532 980 2050 2720 4280 7470
2026-04-25 04:30 8.76 5420 40200 (2011) 148 (1954) 2330 243 360 499 532 980 2050 2720 4280 7470
2026-04-25 03:30 8.57 5050 40200 (2011) 148 (1954) 2330 243 360 499 532 980 2050 2720 4280 7470
2026-04-25 02:30 8.44 4790 40200 (2011) 148 (1954) 2330 243 360 499 532 980 2050 2720 4280 7470
2026-04-25 01:30 8.32 4560 40200 (2011) 148 (1954) 2330 243 360 499 532 980 2050 2720 4280 7470
2026-04-25 00:30 8.19 4320 40200 (2011) 148 (1954) 2330 243 360 499 532 980 2050 2720 4280 7470
2026-04-24 23:30 8.09 4130 40200 (2011) 148 (1954) 2330 243 360 499 532 980 2050 2720 4280 7470
2026-04-24 22:30 7.98 3920 23900 (2004) 145 (2006) 1910 230 355 504 564 957 2170 2480 4150 7290
2026-04-24 21:30 7.85 3680 23900 (2004) 145 (2006) 1910 230 355 504 564 957 2170 2480 4150 7290
2026-04-24 20:30 7.67 3340 23900 (2004) 145 (2006) 1910 230 355 504 564 957 2170 2480 4150 7290
2026-04-24 19:30 7.48 2990 23900 (2004) 145 (2006) 1910 230 355 504 564 957 2170 2480 4150 7290
2026-04-24 18:30 7.34 2740 23900 (2004) 145 (2006) 1910 230 355 504 564 957 2170 2480 4150 7290
2026-04-24 17:30 7.21 2520 23900 (2004) 145 (2006) 1910 230 355 504 564 957 2170 2480 4150 7290
2026-04-24 16:30 7.09 2330 23900 (2004) 145 (2006) 1910 230 355 504 564 957 2170 2480 4150 7290
2026-04-24 15:30 6.97 2140 23900 (2004) 145 (2006) 1910 230 355 504 564 957 2170 2480 4150 7290
2026-04-24 14:30 6.77 1850 23900 (2004) 145 (2006) 1910 230 355 504 564 957 2170 2480 4150 7290
2026-04-24 13:30 6.56 1580 23900 (2004) 145 (2006) 1910 230 355 504 564 957 2170 2480 4150 7290
2026-04-24 12:30 6.41 1400 23900 (2004) 145 (2006) 1910 230 355 504 564 957 2170 2480 4150 7290
2026-04-24 11:30 6.32 1300 23900 (2004) 145 (2006) 1910 230 355 504 564 957 2170 2480 4150 7290
2026-04-24 10:30 6.28 1260 23900 (2004) 145 (2006) 1910 230 355 504 564 957 2170 2480 4150 7290
2026-04-24 09:30 6.24 1220 23900 (2004) 145 (2006) 1910 230 355 504 564 957 2170 2480 4150 7290
2026-04-24 08:30 6.21 1190 23900 (2004) 145 (2006) 1910 230 355 504 564 957 2170 2480 4150 7290
2026-04-24 07:30 6.17 1150 23900 (2004) 145 (2006) 1910 230 355 504 564 957 2170 2480 4150 7290
2026-04-24 06:30 6.17 1150 23900 (2004) 145 (2006) 1910 230 355 504 564 957 2170 2480 4150 7290
2026-04-24 05:30 6.17 1150 23900 (2004) 145 (2006) 1910 230 355 504 564 957 2170 2480 4150 7290
2026-04-24 04:30 6.16 1140 23900 (2004) 145 (2006) 1910 230 355 504 564 957 2170 2480 4150 7290
2026-04-24 03:30 6.05 1030 23900 (2004) 145 (2006) 1910 230 355 504 564 957 2170 2480 4150 7290
2026-04-24 02:30 6.03 1010 23900 (2004) 145 (2006) 1910 230 355 504 564 957 2170 2480 4150 7290
2026-04-24 01:30 6.03 1010 23900 (2004) 145 (2006) 1910 230 355 504 564 957 2170 2480 4150 7290
2026-04-24 00:30 6.04 1020 23900 (2004) 145 (2006) 1910 230 355 504 564 957 2170 2480 4150 7290
2026-04-23 23:30 6.05 1030 23900 (2004) 145 (2006) 1910 230 355 504 564 957 2170 2480 4150 7290
2026-04-23 22:30 6.05 1030 18400 (2017) 141 (2006) 1770 234 359 530 578 996 1840 2400 3800 6680
2026-04-23 21:30 6.06 1040 18400 (2017) 141 (2006) 1770 234 359 530 578 996 1840 2400 3800 6680
2026-04-23 20:30 6.07 1050 18400 (2017) 141 (2006) 1770 234 359 530 578 996 1840 2400 3800 6680
2026-04-23 19:30 6.07 1050 18400 (2017) 141 (2006) 1770 234 359 530 578 996 1840 2400 3800 6680
2026-04-23 18:30 6.07 1050 18400 (2017) 141 (2006) 1770 234 359 530 578 996 1840 2400 3800 6680
2026-04-23 17:30 6.09 1070 18400 (2017) 141 (2006) 1770 234 359 530 578 996 1840 2400 3800 6680
2026-04-23 16:30 6.09 1070 18400 (2017) 141 (2006) 1770 234 359 530 578 996 1840 2400 3800 6680
2026-04-23 15:30 6.10 1080 18400 (2017) 141 (2006) 1770 234 359 530 578 996 1840 2400 3800 6680
2026-04-23 14:30 6.10 1080 18400 (2017) 141 (2006) 1770 234 359 530 578 996 1840 2400 3800 6680
2026-04-23 13:30 6.11 1090 18400 (2017) 141 (2006) 1770 234 359 530 578 996 1840 2400 3800 6680
2026-04-23 12:30 6.11 1090 18400 (2017) 141 (2006) 1770 234 359 530 578 996 1840 2400 3800 6680
2026-04-23 11:30 6.12 1100 18400 (2017) 141 (2006) 1770 234 359 530 578 996 1840 2400 3800 6680
2026-04-23 10:30 6.12 1100 18400 (2017) 141 (2006) 1770 234 359 530 578 996 1840 2400 3800 6680
2026-04-23 09:30 6.14 1120 18400 (2017) 141 (2006) 1770 234 359 530 578 996 1840 2400 3800 6680
2026-04-23 08:30 6.15 1130 18400 (2017) 141 (2006) 1770 234 359 530 578 996 1840 2400 3800 6680
2026-04-23 07:30 6.16 1140 18400 (2017) 141 (2006) 1770 234 359 530 578 996 1840 2400 3800 6680
2026-04-23 06:30 6.17 1150 18400 (2017) 141 (2006) 1770 234 359 530 578 996 1840 2400 3800 6680
2026-04-23 05:30 6.17 1150 18400 (2017) 141 (2006) 1770 234 359 530 578 996 1840 2400 3800 6680
2026-04-23 04:30 6.17 1150 18400 (2017) 141 (2006) 1770 234 359 530 578 996 1840 2400 3800 6680
2026-04-23 03:30 6.17 1150 18400 (2017) 141 (2006) 1770 234 359 530 578 996 1840 2400 3800 6680
2026-04-23 02:30 6.18 1160 18400 (2017) 141 (2006) 1770 234 359 530 578 996 1840 2400 3800 6680
2026-04-23 01:30 6.19 1170 18400 (2017) 141 (2006) 1770 234 359 530 578 996 1840 2400 3800 6680
2026-04-23 00:30 6.20 1180 18400 (2017) 141 (2006) 1770 234 359 530 578 996 1840 2400 3800 6680
2026-04-22 23:30 6.20 1180 18400 (2017) 141 (2006) 1770 234 359 530 578 996 1840 2400 3800 6680
2026-04-22 22:30 6.21 1190 16200 (1976) 143 (2006) 1740 249 343 518 568 940 1720 2330 4200 7270
2026-04-22 21:30 6.23 1210 16200 (1976) 143 (2006) 1740 249 343 518 568 940 1720 2330 4200 7270
2026-04-22 20:30 6.23 1210 16200 (1976) 143 (2006) 1740 249 343 518 568 940 1720 2330 4200 7270
2026-04-22 19:30 6.24 1220 16200 (1976) 143 (2006) 1740 249 343 518 568 940 1720 2330 4200 7270
2026-04-22 18:30 6.24 1220 16200 (1976) 143 (2006) 1740 249 343 518 568 940 1720 2330 4200 7270
2026-04-22 17:30 6.26 1240 16200 (1976) 143 (2006) 1740 249 343 518 568 940 1720 2330 4200 7270
2026-04-22 16:30 6.26 1240 16200 (1976) 143 (2006) 1740 249 343 518 568 940 1720 2330 4200 7270
2026-04-22 15:30 6.28 1260 16200 (1976) 143 (2006) 1740 249 343 518 568 940 1720 2330 4200 7270
2026-04-22 14:30 6.29 1270 16200 (1976) 143 (2006) 1740 249 343 518 568 940 1720 2330 4200 7270
2026-04-22 13:30 6.29 1270 16200 (1976) 143 (2006) 1740 249 343 518 568 940 1720 2330 4200 7270
2026-04-22 12:30 6.30 1280 16200 (1976) 143 (2006) 1740 249 343 518 568 940 1720 2330 4200 7270
2026-04-22 11:30 6.30 1280 16200 (1976) 143 (2006) 1740 249 343 518 568 940 1720 2330 4200 7270
2026-04-22 10:30 6.32 1300 16200 (1976) 143 (2006) 1740 249 343 518 568 940 1720 2330 4200 7270
2026-04-22 09:30 6.32 1300 16200 (1976) 143 (2006) 1740 249 343 518 568 940 1720 2330 4200 7270
2026-04-22 08:30 6.34 1320 16200 (1976) 143 (2006) 1740 249 343 518 568 940 1720 2330 4200 7270
2026-04-22 07:30 6.34 1320 16200 (1976) 143 (2006) 1740 249 343 518 568 940 1720 2330 4200 7270
2026-04-22 06:30 6.35 1330 16200 (1976) 143 (2006) 1740 249 343 518 568 940 1720 2330 4200 7270
2026-04-22 05:30 6.36 1340 16200 (1976) 143 (2006) 1740 249 343 518 568 940 1720 2330 4200 7270
2026-04-22 04:30 6.37 1350 16200 (1976) 143 (2006) 1740 249 343 518 568 940 1720 2330 4200 7270
2026-04-22 03:30 6.38 1370 16200 (1976) 143 (2006) 1740 249 343 518 568 940 1720 2330 4200 7270
2026-04-22 02:30 6.39 1380 16200 (1976) 143 (2006) 1740 249 343 518 568 940 1720 2330 4200 7270
2026-04-22 01:30 6.41 1400 16200 (1976) 143 (2006) 1740 249 343 518 568 940 1720 2330 4200 7270
2026-04-22 00:30 6.41 1400 16200 (1976) 143 (2006) 1740 249 343 518 568 940 1720 2330 4200 7270
2026-04-21 23:30 6.42 1410 16200 (1976) 143 (2006) 1740 249 343 518 568 940 1720 2330 4200 7270
2026-04-21 22:30 6.44 1430 25800 (1976) 144 (1954) 1800 270 336 445 576 902 1630 2000 3870 6940
2026-04-21 21:30 6.45 1450 25800 (1976) 144 (1954) 1800 270 336 445 576 902 1630 2000 3870 6940
2026-04-21 20:30 6.46 1460 25800 (1976) 144 (1954) 1800 270 336 445 576 902 1630 2000 3870 6940
2026-04-21 19:30 6.46 1460 25800 (1976) 144 (1954) 1800 270 336 445 576 902 1630 2000 3870 6940
2026-04-21 18:30 6.48 1480 25800 (1976) 144 (1954) 1800 270 336 445 576 902 1630 2000 3870 6940
2026-04-21 17:30 6.50 1500 25800 (1976) 144 (1954) 1800 270 336 445 576 902 1630 2000 3870 6940
2026-04-21 16:30 6.50 1500 25800 (1976) 144 (1954) 1800 270 336 445 576 902 1630 2000 3870 6940
2026-04-21 15:30 6.52 1530 25800 (1976) 144 (1954) 1800 270 336 445 576 902 1630 2000 3870 6940
2026-04-21 14:30 6.53 1540 25800 (1976) 144 (1954) 1800 270 336 445 576 902 1630 2000 3870 6940
2026-04-21 13:30 6.55 1560 25800 (1976) 144 (1954) 1800 270 336 445 576 902 1630 2000 3870 6940
2026-04-21 12:30 6.55 1560 25800 (1976) 144 (1954) 1800 270 336 445 576 902 1630 2000 3870 6940
2026-04-21 11:30 6.57 1590 25800 (1976) 144 (1954) 1800 270 336 445 576 902 1630 2000 3870 6940
2026-04-21 10:30 6.58 1600 25800 (1976) 144 (1954) 1800 270 336 445 576 902 1630 2000 3870 6940
2026-04-21 09:30 6.59 1610 25800 (1976) 144 (1954) 1800 270 336 445 576 902 1630 2000 3870 6940
2026-04-21 08:30 6.61 1640 25800 (1976) 144 (1954) 1800 270 336 445 576 902 1630 2000 3870 6940
2026-04-21 07:30 6.62 1650 25800 (1976) 144 (1954) 1800 270 336 445 576 902 1630 2000 3870 6940
2026-04-21 06:30 6.63 1660 25800 (1976) 144 (1954) 1800 270 336 445 576 902 1630 2000 3870 6940
2026-04-21 05:30 6.66 1700 25800 (1976) 144 (1954) 1800 270 336 445 576 902 1630 2000 3870 6940
2026-04-21 04:30 6.67 1710 25800 (1976) 144 (1954) 1800 270 336 445 576 902 1630 2000 3870 6940
2026-04-21 03:30 6.67 1710 25800 (1976) 144 (1954) 1800 270 336 445 576 902 1630 2000 3870 6940
2026-04-21 02:30 6.69 1740 25800 (1976) 144 (1954) 1800 270 336 445 576 902 1630 2000 3870 6940
2026-04-21 01:30 6.71 1770 25800 (1976) 144 (1954) 1800 270 336 445 576 902 1630 2000 3870 6940
2026-04-20 23:30 6.74 1810 25800 (1976) 144 (1954) 1800 270 336 445 576 902 1630 2000 3870 6940
2026-04-20 22:30 6.75 1820 30600 (1941) 150 (2006) 1750 259 320 473 584 934 1550 1650 3240 6950
2026-04-20 21:30 6.76 1830 30600 (1941) 150 (2006) 1750 259 320 473 584 934 1550 1650 3240 6950
2026-04-20 20:30 6.78 1860 30600 (1941) 150 (2006) 1750 259 320 473 584 934 1550 1650 3240 6950
2026-04-20 19:30 6.80 1890 30600 (1941) 150 (2006) 1750 259 320 473 584 934 1550 1650 3240 6950
2026-04-20 18:30 6.82 1920 30600 (1941) 150 (2006) 1750 259 320 473 584 934 1550 1650 3240 6950
2026-04-20 17:30 6.86 1980 30600 (1941) 150 (2006) 1750 259 320 473 584 934 1550 1650 3240 6950
2026-04-20 16:30 6.86 1980 30600 (1941) 150 (2006) 1750 259 320 473 584 934 1550 1650 3240 6950
2026-04-20 15:30 6.88 2010 30600 (1941) 150 (2006) 1750 259 320 473 584 934 1550 1650 3240 6950
2026-04-20 14:30 6.90 2040 30600 (1941) 150 (2006) 1750 259 320 473 584 934 1550 1650 3240 6950
2026-04-20 13:30 6.93 2080 30600 (1941) 150 (2006) 1750 259 320 473 584 934 1550 1650 3240 6950
2026-04-20 12:30 6.95 2110 30600 (1941) 150 (2006) 1750 259 320 473 584 934 1550 1650 3240 6950
2026-04-20 11:30 6.98 2160 30600 (1941) 150 (2006) 1750 259 320 473 584 934 1550 1650 3240 6950
2026-04-20 10:30 7.00 2190 30600 (1941) 150 (2006) 1750 259 320 473 584 934 1550 1650 3240 6950
2026-04-20 09:30 7.00 2190 30600 (1941) 150 (2006) 1750 259 320 473 584 934 1550 1650 3240 6950
2026-04-20 08:30 7.02 2220 30600 (1941) 150 (2006) 1750 259 320 473 584 934 1550 1650 3240 6950
2026-04-20 07:30 7.05 2270 30600 (1941) 150 (2006) 1750 259 320 473 584 934 1550 1650 3240 6950
2026-04-20 06:30 7.06 2280 30600 (1941) 150 (2006) 1750 259 320 473 584 934 1550 1650 3240 6950
2026-04-20 05:30 7.10 2340 30600 (1941) 150 (2006) 1750 259 320 473 584 934 1550 1650 3240 6950
2026-04-20 04:30 7.11 2360 30600 (1941) 150 (2006) 1750 259 320 473 584 934 1550 1650 3240 6950
2026-04-20 03:30 7.13 2390 30600 (1941) 150 (2006) 1750 259 320 473 584 934 1550 1650 3240 6950
2026-04-20 02:30 7.16 2440 30600 (1941) 150 (2006) 1750 259 320 473 584 934 1550 1650 3240 6950
2026-04-20 01:30 7.18 2470 30600 (1941) 150 (2006) 1750 259 320 473 584 934 1550 1650 3240 6950
2026-04-20 00:30 7.20 2510 30600 (1941) 150 (2006) 1750 259 320 473 584 934 1550 1650 3240 6950
2026-04-19 23:30 7.22 2540 30600 (1941) 150 (2006) 1750 259 320 473 584 934 1550 1650 3240 6950
2026-04-19 22:30 7.24 2570 21800 (1941) 157 (2006) 1680 252 340 449 558 939 1540 1660 3690 5280
2026-04-19 21:30 7.25 2590 21800 (1941) 157 (2006) 1680 252 340 449 558 939 1540 1660 3690 5280
2026-04-19 20:30 7.26 2610 21800 (1941) 157 (2006) 1680 252 340 449 558 939 1540 1660 3690 5280
2026-04-19 19:30 7.29 2660 21800 (1941) 157 (2006) 1680 252 340 449 558 939 1540 1660 3690 5280
2026-04-19 18:30 7.29 2660 21800 (1941) 157 (2006) 1680 252 340 449 558 939 1540 1660 3690 5280
2026-04-19 17:30 7.29 2660 21800 (1941) 157 (2006) 1680 252 340 449 558 939 1540 1660 3690 5280
2026-04-19 16:30 7.27 2620 21800 (1941) 157 (2006) 1680 252 340 449 558 939 1540 1660 3690 5280
2026-04-19 15:30 7.26 2610 21800 (1941) 157 (2006) 1680 252 340 449 558 939 1540 1660 3690 5280
2026-04-19 14:30 7.23 2560 21800 (1941) 157 (2006) 1680 252 340 449 558 939 1540 1660 3690 5280
2026-04-19 13:30 7.18 2470 21800 (1941) 157 (2006) 1680 252 340 449 558 939 1540 1660 3690 5280
2026-04-19 12:30 7.17 2460 21800 (1941) 157 (2006) 1680 252 340 449 558 939 1540 1660 3690 5280
2026-04-19 11:30 7.14 2410 21800 (1941) 157 (2006) 1680 252 340 449 558 939 1540 1660 3690 5280
2026-04-19 10:30 7.12 2380 21800 (1941) 157 (2006) 1680 252 340 449 558 939 1540 1660 3690 5280
2026-04-19 09:30 7.12 2380 21800 (1941) 157 (2006) 1680 252 340 449 558 939 1540 1660 3690 5280
2026-04-19 08:30 7.14 2410 21800 (1941) 157 (2006) 1680 252 340 449 558 939 1540 1660 3690 5280
2026-04-19 07:30 7.15 2420 21800 (1941) 157 (2006) 1680 252 340 449 558 939 1540 1660 3690 5280
2026-04-19 06:30 7.17 2460 21800 (1941) 157 (2006) 1680 252 340 449 558 939 1540 1660 3690 5280
2026-04-19 05:30 7.19 2490 21800 (1941) 157 (2006) 1680 252 340 449 558 939 1540 1660 3690 5280
2026-04-19 04:30 7.19 2490 21800 (1941) 157 (2006) 1680 252 340 449 558 939 1540 1660 3690 5280
2026-04-19 03:30 7.20 2510 21800 (1941) 157 (2006) 1680 252 340 449 558 939 1540 1660 3690 5280
2026-04-19 02:30 7.22 2540 21800 (1941) 157 (2006) 1680 252 340 449 558 939 1540 1660 3690 5280
2026-04-19 01:30 7.20 2510 21800 (1941) 157 (2006) 1680 252 340 449 558 939 1540 1660 3690 5280
2026-04-19 00:30 7.19 2490 21800 (1941) 157 (2006) 1680 252 340 449 558 939 1540 1660 3690 5280
2026-04-18 23:30 7.18 2470 21800 (1941) 157 (2006) 1680 252 340 449 558 939 1540 1660 3690 5280
2026-04-18 22:30 7.15 2420 13800 (1990) 142 (1981) 1470 254 365 498 565 914 1560 1750 2680 5650
2026-04-18 21:30 7.13 2390 13800 (1990) 142 (1981) 1470 254 365 498 565 914 1560 1750 2680 5650
2026-04-18 20:30 7.11 2360 13800 (1990) 142 (1981) 1470 254 365 498 565 914 1560 1750 2680 5650
2026-04-18 19:30 7.11 2360 13800 (1990) 142 (1981) 1470 254 365 498 565 914 1560 1750 2680 5650
2026-04-18 18:30 7.09 2330 13800 (1990) 142 (1981) 1470 254 365 498 565 914 1560 1750 2680 5650
2026-04-18 17:30 7.09 2330 13800 (1990) 142 (1981) 1470 254 365 498 565 914 1560 1750 2680 5650
2026-04-18 16:30 7.07 2300 13800 (1990) 142 (1981) 1470 254 365 498 565 914 1560 1750 2680 5650
2026-04-18 15:30 7.06 2280 13800 (1990) 142 (1981) 1470 254 365 498 565 914 1560 1750 2680 5650
2026-04-18 14:30 7.06 2280 13800 (1990) 142 (1981) 1470 254 365 498 565 914 1560 1750 2680 5650
2026-04-18 13:30 7.04 2250 13800 (1990) 142 (1981) 1470 254 365 498 565 914 1560 1750 2680 5650
2026-04-18 12:30 7.03 2230 13800 (1990) 142 (1981) 1470 254 365 498 565 914 1560 1750 2680 5650
2026-04-18 11:30 7.01 2200 13800 (1990) 142 (1981) 1470 254 365 498 565 914 1560 1750 2680 5650
2026-04-18 10:30 7.01 2200 13800 (1990) 142 (1981) 1470 254 365 498 565 914 1560 1750 2680 5650
2026-04-18 09:30 7.01 2200 13800 (1990) 142 (1981) 1470 254 365 498 565 914 1560 1750 2680 5650
2026-04-18 08:30 7.00 2190 13800 (1990) 142 (1981) 1470 254 365 498 565 914 1560 1750 2680 5650
2026-04-18 07:30 7.01 2200 13800 (1990) 142 (1981) 1470 254 365 498 565 914 1560 1750 2680 5650
2026-04-18 06:30 7.01 2200 13800 (1990) 142 (1981) 1470 254 365 498 565 914 1560 1750 2680 5650
2026-04-18 05:30 7.01 2200 13800 (1990) 142 (1981) 1470 254 365 498 565 914 1560 1750 2680 5650
2026-04-18 04:30 7.03 2230 13800 (1990) 142 (1981) 1470 254 365 498 565 914 1560 1750 2680 5650
2026-04-18 03:30 7.03 2230 13800 (1990) 142 (1981) 1470 254 365 498 565 914 1560 1750 2680 5650
2026-04-18 02:30 7.03 2230 13800 (1990) 142 (1981) 1470 254 365 498 565 914 1560 1750 2680 5650
2026-04-18 01:30 7.07 2300 13800 (1990) 142 (1981) 1470 254 365 498 565 914 1560 1750 2680 5650
2026-04-18 00:30 7.07 2300 13800 (1990) 142 (1981) 1470 254 365 498 565 914 1560 1750 2680 5650
2026-04-17 23:30 7.08 2310 13800 (1990) 142 (1981) 1470 254 365 498 565 914 1560 1750 2680 5650
2026-04-17 22:30 7.11 2360 14400 (1945) 144 (1954) 1530 255 334 480 533 947 1510 1830 3430 4580
2026-04-17 21:30 7.13 2390 14400 (1945) 144 (1954) 1530 255 334 480 533 947 1510 1830 3430 4580
2026-04-17 20:30 7.15 2420 14400 (1945) 144 (1954) 1530 255 334 480 533 947 1510 1830 3430 4580
2026-04-17 19:30 7.17 2460 14400 (1945) 144 (1954) 1530 255 334 480 533 947 1510 1830 3430 4580
2026-04-17 18:30 7.21 2520 14400 (1945) 144 (1954) 1530 255 334 480 533 947 1510 1830 3430 4580
2026-04-17 17:30 7.23 2560 14400 (1945) 144 (1954) 1530 255 334 480 533 947 1510 1830 3430 4580
2026-04-17 16:30 7.25 2590 14400 (1945) 144 (1954) 1530 255 334 480 533 947 1510 1830 3430 4580
2026-04-17 15:30 7.29 2660 14400 (1945) 144 (1954) 1530 255 334 480 533 947 1510 1830 3430 4580
2026-04-17 14:30 7.32 2710 14400 (1945) 144 (1954) 1530 255 334 480 533 947 1510 1830 3430 4580
2026-04-17 13:30 7.34 2740 14400 (1945) 144 (1954) 1530 255 334 480 533 947 1510 1830 3430 4580
2026-04-17 12:30 7.36 2780 14400 (1945) 144 (1954) 1530 255 334 480 533 947 1510 1830 3430 4580
2026-04-17 11:30 7.40 2850 14400 (1945) 144 (1954) 1530 255 334 480 533 947 1510 1830 3430 4580
2026-04-17 10:30 7.43 2900 14400 (1945) 144 (1954) 1530 255 334 480 533 947 1510 1830 3430 4580
2026-04-17 09:30 7.45 2940 14400 (1945) 144 (1954) 1530 255 334 480 533 947 1510 1830 3430 4580
2026-04-17 08:30 7.49 3010 14400 (1945) 144 (1954) 1530 255 334 480 533 947 1510 1830 3430 4580
2026-04-17 07:30 7.49 3010 14400 (1945) 144 (1954) 1530 255 334 480 533 947 1510 1830 3430 4580
2026-04-17 06:30 7.51 3050 14400 (1945) 144 (1954) 1530 255 334 480 533 947 1510 1830 3430 4580
2026-04-17 05:30 7.52 3070 14400 (1945) 144 (1954) 1530 255 334 480 533 947 1510 1830 3430 4580
2026-04-17 04:30 7.53 3090 14400 (1945) 144 (1954) 1530 255 334 480 533 947 1510 1830 3430 4580
2026-04-17 03:30 7.55 3120 14400 (1945) 144 (1954) 1530 255 334 480 533 947 1510 1830 3430 4580
2026-04-17 02:30 7.55 3120 14400 (1945) 144 (1954) 1530 255 334 480 533 947 1510 1830 3430 4580
2026-04-17 01:30 7.56 3140 14400 (1945) 144 (1954) 1530 255 334 480 533 947 1510 1830 3430 4580
2026-04-17 00:30 7.58 3180 14400 (1945) 144 (1954) 1530 255 334 480 533 947 1510 1830 3430 4580
2026-04-16 23:30 7.61 3230 14400 (1945) 144 (1954) 1530 255 334 480 533 947 1510 1830 3430 4580
2026-04-16 22:30 7.65 3310 43600 (1945) 134 (1956) 1880 219 340 453 531 940 1550 1830 3080 5400
2026-04-16 21:30 7.68 3360 43600 (1945) 134 (1956) 1880 219 340 453 531 940 1550 1830 3080 5400
2026-04-16 20:30 7.71 3420 43600 (1945) 134 (1956) 1880 219 340 453 531 940 1550 1830 3080 5400
2026-04-16 19:30 7.72 3440 43600 (1945) 134 (1956) 1880 219 340 453 531 940 1550 1830 3080 5400
2026-04-16 18:30 7.74 3470 43600 (1945) 134 (1956) 1880 219 340 453 531 940 1550 1830 3080 5400
2026-04-16 17:30 7.77 3530 43600 (1945) 134 (1956) 1880 219 340 453 531 940 1550 1830 3080 5400
2026-04-16 16:30 7.78 3550 43600 (1945) 134 (1956) 1880 219 340 453 531 940 1550 1830 3080 5400
2026-04-16 15:30 7.79 3570 43600 (1945) 134 (1956) 1880 219 340 453 531 940 1550 1830 3080 5400
2026-04-16 14:30 7.78 3550 43600 (1945) 134 (1956) 1880 219 340 453 531 940 1550 1830 3080 5400
2026-04-16 13:30 7.78 3550 43600 (1945) 134 (1956) 1880 219 340 453 531 940 1550 1830 3080 5400
2026-04-16 12:30 7.76 3510 43600 (1945) 134 (1956) 1880 219 340 453 531 940 1550 1830 3080 5400
2026-04-16 11:30 7.71 3420 43600 (1945) 134 (1956) 1880 219 340 453 531 940 1550 1830 3080 5400
2026-04-16 10:30 7.66 3330 43600 (1945) 134 (1956) 1880 219 340 453 531 940 1550 1830 3080 5400
2026-04-16 09:30 7.63 3270 43600 (1945) 134 (1956) 1880 219 340 453 531 940 1550 1830 3080 5400
2026-04-16 08:30 7.61 3230 43600 (1945) 134 (1956) 1880 219 340 453 531 940 1550 1830 3080 5400
2026-04-16 07:30 7.59 3200 43600 (1945) 134 (1956) 1880 219 340 453 531 940 1550 1830 3080 5400
2026-04-16 06:30 7.55 3120 43600 (1945) 134 (1956) 1880 219 340 453 531 940 1550 1830 3080 5400
2026-04-16 05:30 7.49 3010 43600 (1945) 134 (1956) 1880 219 340 453 531 940 1550 1830 3080 5400
2026-04-16 04:30 7.41 2870 43600 (1945) 134 (1956) 1880 219 340 453 531 940 1550 1830 3080 5400
2026-04-16 03:30 7.33 2730 43600 (1945) 134 (1956) 1880 219 340 453 531 940 1550 1830 3080 5400
2026-04-16 02:30 7.24 2570 43600 (1945) 134 (1956) 1880 219 340 453 531 940 1550 1830 3080 5400
2026-04-16 01:30 7.16 2440 43600 (1945) 134 (1956) 1880 219 340 453 531 940 1550 1830 3080 5400
2026-04-16 00:30 7.15 2420 43600 (1945) 134 (1956) 1880 219 340 453 531 940 1550 1830 3080 5400
2026-04-15 23:30 7.15 2420 43600 (1945) 134 (1956) 1880 219 340 453 531 940 1550 1830 3080 5400
2026-04-15 22:30 7.04 2250 58300 (1945) 134 (1956) 2090 225 307 466 527 992 1750 2070 3770 5270
2026-04-15 21:30 6.74 1810 58300 (1945) 134 (1956) 2090 225 307 466 527 992 1750 2070 3770 5270
2026-04-15 20:30 6.44 1430 58300 (1945) 134 (1956) 2090 225 307 466 527 992 1750 2070 3770 5270
2026-04-15 19:30 6.30 1280 58300 (1945) 134 (1956) 2090 225 307 466 527 992 1750 2070 3770 5270
2026-04-15 18:30 6.18 1160 58300 (1945) 134 (1956) 2090 225 307 466 527 992 1750 2070 3770 5270
2026-04-15 17:30 6.03 1010 58300 (1945) 134 (1956) 2090 225 307 466 527 992 1750 2070 3770 5270
2026-04-15 16:30 5.91 908 58300 (1945) 134 (1956) 2090 225 307 466 527 992 1750 2070 3770 5270
2026-04-15 15:30 5.83 842 58300 (1945) 134 (1956) 2090 225 307 466 527 992 1750 2070 3770 5270
2026-04-15 14:30 5.75 780 58300 (1945) 134 (1956) 2090 225 307 466 527 992 1750 2070 3770 5270
2026-04-15 13:30 5.70 743 58300 (1945) 134 (1956) 2090 225 307 466 527 992 1750 2070 3770 5270
2026-04-15 12:30 5.67 721 58300 (1945) 134 (1956) 2090 225 307 466 527 992 1750 2070 3770 5270
2026-04-15 11:30 5.65 707 58300 (1945) 134 (1956) 2090 225 307 466 527 992 1750 2070 3770 5270
2026-04-15 10:30 5.65 707 58300 (1945) 134 (1956) 2090 225 307 466 527 992 1750 2070 3770 5270
2026-04-15 09:30 5.63 693 58300 (1945) 134 (1956) 2090 225 307 466 527 992 1750 2070 3770 5270
2026-04-15 08:30 5.64 700 58300 (1945) 134 (1956) 2090 225 307 466 527 992 1750 2070 3770 5270
2026-04-15 07:30 5.62 686 58300 (1945) 134 (1956) 2090 225 307 466 527 992 1750 2070 3770 5270
2026-04-15 06:30 5.60 672 58300 (1945) 134 (1956) 2090 225 307 466 527 992 1750 2070 3770 5270
2026-04-15 04:30 5.59 665 58300 (1945) 134 (1956) 2090 225 307 466 527 992 1750 2070 3770 5270
2026-04-15 03:30 5.60 672 58300 (1945) 134 (1956) 2090 225 307 466 527 992 1750 2070 3770 5270
2026-04-15 02:30 5.57 651 58300 (1945) 134 (1956) 2090 225 307 466 527 992 1750 2070 3770 5270
2026-04-15 01:30 5.55 638 58300 (1945) 134 (1956) 2090 225 307 466 527 992 1750 2070 3770 5270
2026-04-15 00:30 5.52 618 58300 (1945) 134 (1956) 2090 225 307 466 527 992 1750 2070 3770 5270
2026-04-14 23:30 5.49 599 58300 (1945) 134 (1956) 2090 225 307 466 527 992 1750 2070 3770 5270
2026-04-14 22:30 5.48 593 12400 (2022) 111 (1956) 1600 218 309 487 538 1030 1720 1920 3670 6370
2026-04-14 21:30 5.49 599 12400 (2022) 111 (1956) 1600 218 309 487 538 1030 1720 1920 3670 6370
2026-04-14 20:30 5.50 605 12400 (2022) 111 (1956) 1600 218 309 487 538 1030 1720 1920 3670 6370
2026-04-14 19:30 5.52 618 12400 (2022) 111 (1956) 1600 218 309 487 538 1030 1720 1920 3670 6370
2026-04-14 18:30 5.51 612 12400 (2022) 111 (1956) 1600 218 309 487 538 1030 1720 1920 3670 6370
2026-04-14 17:30 5.50 605 12400 (2022) 111 (1956) 1600 218 309 487 538 1030 1720 1920 3670 6370
2026-04-14 16:30 5.52 618 12400 (2022) 111 (1956) 1600 218 309 487 538 1030 1720 1920 3670 6370
2026-04-14 15:30 5.52 618 12400 (2022) 111 (1956) 1600 218 309 487 538 1030 1720 1920 3670 6370
2026-04-14 14:30 5.52 618 12400 (2022) 111 (1956) 1600 218 309 487 538 1030 1720 1920 3670 6370
2026-04-14 13:30 5.53 625 12400 (2022) 111 (1956) 1600 218 309 487 538 1030 1720 1920 3670 6370
2026-04-14 12:30 5.53 625 12400 (2022) 111 (1956) 1600 218 309 487 538 1030 1720 1920 3670 6370
2026-04-14 11:30 5.52 618 12400 (2022) 111 (1956) 1600 218 309 487 538 1030 1720 1920 3670 6370
2026-04-14 09:30 5.53 625 12400 (2022) 111 (1956) 1600 218 309 487 538 1030 1720 1920 3670 6370
2026-04-14 08:30 5.53 625 12400 (2022) 111 (1956) 1600 218 309 487 538 1030 1720 1920 3670 6370
2026-04-14 07:30 5.53 625 12400 (2022) 111 (1956) 1600 218 309 487 538 1030 1720 1920 3670 6370
2026-04-14 06:30 5.54 631 12400 (2022) 111 (1956) 1600 218 309 487 538 1030 1720 1920 3670 6370
2026-04-14 05:30 5.55 638 12400 (2022) 111 (1956) 1600 218 309 487 538 1030 1720 1920 3670 6370
2026-04-14 04:30 5.55 638 12400 (2022) 111 (1956) 1600 218 309 487 538 1030 1720 1920 3670 6370
2026-04-14 03:30 5.55 638 12400 (2022) 111 (1956) 1600 218 309 487 538 1030 1720 1920 3670 6370
2026-04-14 02:30 5.55 638 12400 (2022) 111 (1956) 1600 218 309 487 538 1030 1720 1920 3670 6370
2026-04-14 01:30 5.56 645 12400 (2022) 111 (1956) 1600 218 309 487 538 1030 1720 1920 3670 6370
2026-04-14 00:30 5.55 638 12400 (2022) 111 (1956) 1600 218 309 487 538 1030 1720 1920 3670 6370
2026-04-13 23:30 5.57 651 12400 (2022) 111 (1956) 1600 218 309 487 538 1030 1720 1920 3670 6370
2026-04-13 22:30 5.57 651 12700 (1979) 99 (1956) 1540 223 315 424 525 951 1970 2270 3390 5580
2026-04-13 21:30 5.57 651 12700 (1979) 99 (1956) 1540 223 315 424 525 951 1970 2270 3390 5580
2026-04-13 20:30 5.57 651 12700 (1979) 99 (1956) 1540 223 315 424 525 951 1970 2270 3390 5580
2026-04-13 19:30 5.59 665 12700 (1979) 99 (1956) 1540 223 315 424 525 951 1970 2270 3390 5580
2026-04-13 18:30 5.57 651 12700 (1979) 99 (1956) 1540 223 315 424 525 951 1970 2270 3390 5580
2026-04-13 17:30 5.58 658 12700 (1979) 99 (1956) 1540 223 315 424 525 951 1970 2270 3390 5580
2026-04-13 16:30 5.59 665 12700 (1979) 99 (1956) 1540 223 315 424 525 951 1970 2270 3390 5580
2026-04-13 15:30 5.59 665 12700 (1979) 99 (1956) 1540 223 315 424 525 951 1970 2270 3390 5580
2026-04-13 14:30 5.61 679 12700 (1979) 99 (1956) 1540 223 315 424 525 951 1970 2270 3390 5580
2026-04-13 13:30 5.62 686 12700 (1979) 99 (1956) 1540 223 315 424 525 951 1970 2270 3390 5580
2026-04-13 12:30 5.62 686 12700 (1979) 99 (1956) 1540 223 315 424 525 951 1970 2270 3390 5580
2026-04-13 11:30 5.61 679 12700 (1979) 99 (1956) 1540 223 315 424 525 951 1970 2270 3390 5580
2026-04-13 10:30 5.63 693 12700 (1979) 99 (1956) 1540 223 315 424 525 951 1970 2270 3390 5580
2026-04-13 09:30 5.61 679 12700 (1979) 99 (1956) 1540 223 315 424 525 951 1970 2270 3390 5580
2026-04-13 08:30 5.62 686 12700 (1979) 99 (1956) 1540 223 315 424 525 951 1970 2270 3390 5580
2026-04-13 07:30 5.63 693 12700 (1979) 99 (1956) 1540 223 315 424 525 951 1970 2270 3390 5580
2026-04-13 06:30 5.62 686 12700 (1979) 99 (1956) 1540 223 315 424 525 951 1970 2270 3390 5580
2026-04-13 05:30 5.62 686 12700 (1979) 99 (1956) 1540 223 315 424 525 951 1970 2270 3390 5580
2026-04-13 04:30 5.64 700 12700 (1979) 99 (1956) 1540 223 315 424 525 951 1970 2270 3390 5580
2026-04-13 03:30 5.64 700 12700 (1979) 99 (1956) 1540 223 315 424 525 951 1970 2270 3390 5580
2026-04-13 02:30 5.63 693 12700 (1979) 99 (1956) 1540 223 315 424 525 951 1970 2270 3390 5580
2026-04-13 01:30 5.63 693 12700 (1979) 99 (1956) 1540 223 315 424 525 951 1970 2270 3390 5580
2026-04-13 00:30 5.64 700 12700 (1979) 99 (1956) 1540 223 315 424 525 951 1970 2270 3390 5580
2026-04-12 23:30 5.63 693 12700 (1979) 99 (1956) 1540 223 315 424 525 951 1970 2270 3390 5580
2026-04-12 22:30 5.63 693 12700 (2008) 78 (1956) 1550 182 296 426 492 1000 1740 2200 3480 5480
2026-04-12 21:30 5.66 714 12700 (2008) 78 (1956) 1550 182 296 426 492 1000 1740 2200 3480 5480
2026-04-12 20:30 5.66 714 12700 (2008) 78 (1956) 1550 182 296 426 492 1000 1740 2200 3480 5480
2026-04-12 19:30 5.66 714 12700 (2008) 78 (1956) 1550 182 296 426 492 1000 1740 2200 3480 5480
2026-04-12 18:30 5.65 707 12700 (2008) 78 (1956) 1550 182 296 426 492 1000 1740 2200 3480 5480
2026-04-12 17:30 5.66 714 12700 (2008) 78 (1956) 1550 182 296 426 492 1000 1740 2200 3480 5480
2026-04-12 16:30 5.66 714 12700 (2008) 78 (1956) 1550 182 296 426 492 1000 1740 2200 3480 5480
2026-04-12 15:30 5.66 714 12700 (2008) 78 (1956) 1550 182 296 426 492 1000 1740 2200 3480 5480
2026-04-12 14:30 5.67 721 12700 (2008) 78 (1956) 1550 182 296 426 492 1000 1740 2200 3480 5480
2026-04-12 13:30 5.66 714 12700 (2008) 78 (1956) 1550 182 296 426 492 1000 1740 2200 3480 5480
2026-04-12 12:30 5.68 728 12700 (2008) 78 (1956) 1550 182 296 426 492 1000 1740 2200 3480 5480
2026-04-12 11:30 5.68 728 12700 (2008) 78 (1956) 1550 182 296 426 492 1000 1740 2200 3480 5480
2026-04-12 10:30 5.67 721 12700 (2008) 78 (1956) 1550 182 296 426 492 1000 1740 2200 3480 5480
2026-04-12 09:30 5.70 743 12700 (2008) 78 (1956) 1550 182 296 426 492 1000 1740 2200 3480 5480
2026-04-12 08:30 5.69 735 12700 (2008) 78 (1956) 1550 182 296 426 492 1000 1740 2200 3480 5480
2026-04-12 07:30 5.69 735 12700 (2008) 78 (1956) 1550 182 296 426 492 1000 1740 2200 3480 5480
2026-04-12 06:30 5.68 728 12700 (2008) 78 (1956) 1550 182 296 426 492 1000 1740 2200 3480 5480
2026-04-12 05:30 5.70 743 12700 (2008) 78 (1956) 1550 182 296 426 492 1000 1740 2200 3480 5480
2026-04-12 04:30 5.69 735 12700 (2008) 78 (1956) 1550 182 296 426 492 1000 1740 2200 3480 5480
2026-04-12 03:30 5.70 743 12700 (2008) 78 (1956) 1550 182 296 426 492 1000 1740 2200 3480 5480
2026-04-12 02:30 5.70 743 12700 (2008) 78 (1956) 1550 182 296 426 492 1000 1740 2200 3480 5480
2026-04-12 01:30 5.71 750 12700 (2008) 78 (1956) 1550 182 296 426 492 1000 1740 2200 3480 5480
2026-04-12 00:30 5.70 743 12700 (2008) 78 (1956) 1550 182 296 426 492 1000 1740 2200 3480 5480
2026-04-11 23:30 5.71 750 12700 (2008) 78 (1956) 1550 182 296 426 492 1000 1740 2200 3480 5480
2026-04-11 22:30 5.72 758 29900 (2008) 54 (1956) 1600 185 297 413 516 964 1510 1750 2960 4760
2026-04-11 21:30 5.72 758 29900 (2008) 54 (1956) 1600 185 297 413 516 964 1510 1750 2960 4760
2026-04-11 20:30 5.72 758 29900 (2008) 54 (1956) 1600 185 297 413 516 964 1510 1750 2960 4760
2026-04-11 19:30 5.72 758 29900 (2008) 54 (1956) 1600 185 297 413 516 964 1510 1750 2960 4760
2026-04-11 18:30 5.73 765 29900 (2008) 54 (1956) 1600 185 297 413 516 964 1510 1750 2960 4760
2026-04-11 17:30 5.72 758 29900 (2008) 54 (1956) 1600 185 297 413 516 964 1510 1750 2960 4760
2026-04-11 16:30 5.74 773 29900 (2008) 54 (1956) 1600 185 297 413 516 964 1510 1750 2960 4760
2026-04-11 15:30 5.74 773 29900 (2008) 54 (1956) 1600 185 297 413 516 964 1510 1750 2960 4760
2026-04-11 14:30 5.75 780 29900 (2008) 54 (1956) 1600 185 297 413 516 964 1510 1750 2960 4760
2026-04-11 13:30 5.75 780 29900 (2008) 54 (1956) 1600 185 297 413 516 964 1510 1750 2960 4760
2026-04-11 12:30 5.75 780 29900 (2008) 54 (1956) 1600 185 297 413 516 964 1510 1750 2960 4760
2026-04-11 11:30 5.76 788 29900 (2008) 54 (1956) 1600 185 297 413 516 964 1510 1750 2960 4760
2026-04-11 10:30 5.78 803 29900 (2008) 54 (1956) 1600 185 297 413 516 964 1510 1750 2960 4760
2026-04-11 09:30 5.78 803 29900 (2008) 54 (1956) 1600 185 297 413 516 964 1510 1750 2960 4760
2026-04-11 08:30 5.79 811 29900 (2008) 54 (1956) 1600 185 297 413 516 964 1510 1750 2960 4760
2026-04-11 07:30 5.79 811 29900 (2008) 54 (1956) 1600 185 297 413 516 964 1510 1750 2960 4760
2026-04-11 06:30 5.79 811 29900 (2008) 54 (1956) 1600 185 297 413 516 964 1510 1750 2960 4760
2026-04-11 05:30 5.79 811 29900 (2008) 54 (1956) 1600 185 297 413 516 964 1510 1750 2960 4760
2026-04-11 04:30 5.80 819 29900 (2008) 54 (1956) 1600 185 297 413 516 964 1510 1750 2960 4760
2026-04-11 03:30 5.80 819 29900 (2008) 54 (1956) 1600 185 297 413 516 964 1510 1750 2960 4760
2026-04-11 02:30 5.82 835 29900 (2008) 54 (1956) 1600 185 297 413 516 964 1510 1750 2960 4760
2026-04-11 01:30 5.81 827 29900 (2008) 54 (1956) 1600 185 297 413 516 964 1510 1750 2960 4760
2026-04-11 00:30 5.81 827 29900 (2008) 54 (1956) 1600 185 297 413 516 964 1510 1750 2960 4760
2026-04-10 23:30 5.82 835 29900 (2008) 54 (1956) 1600 185 297 413 516 964 1510 1750 2960 4760
2026-04-10 22:30 5.82 835 9820 (2008) 44 (1956) 1430 189 305 433 537 890 1520 1740 3710 6330
2026-04-10 21:30 5.84 851 9820 (2008) 44 (1956) 1430 189 305 433 537 890 1520 1740 3710 6330
2026-04-10 20:30 5.83 842 9820 (2008) 44 (1956) 1430 189 305 433 537 890 1520 1740 3710 6330
2026-04-10 19:30 5.82 835 9820 (2008) 44 (1956) 1430 189 305 433 537 890 1520 1740 3710 6330
2026-04-10 18:30 5.81 827 9820 (2008) 44 (1956) 1430 189 305 433 537 890 1520 1740 3710 6330
2026-04-10 17:30 5.84 851 9820 (2008) 44 (1956) 1430 189 305 433 537 890 1520 1740 3710 6330
2026-04-10 16:30 5.85 859 9820 (2008) 44 (1956) 1430 189 305 433 537 890 1520 1740 3710 6330
2026-04-10 15:30 5.84 851 9820 (2008) 44 (1956) 1430 189 305 433 537 890 1520 1740 3710 6330
2026-04-10 14:30 5.86 867 9820 (2008) 44 (1956) 1430 189 305 433 537 890 1520 1740 3710 6330
2026-04-10 13:30 5.87 875 9820 (2008) 44 (1956) 1430 189 305 433 537 890 1520 1740 3710 6330
2026-04-10 12:30 5.88 883 9820 (2008) 44 (1956) 1430 189 305 433 537 890 1520 1740 3710 6330
2026-04-10 11:30 5.88 883 9820 (2008) 44 (1956) 1430 189 305 433 537 890 1520 1740 3710 6330
2026-04-10 10:30 5.89 891 9820 (2008) 44 (1956) 1430 189 305 433 537 890 1520 1740 3710 6330
2026-04-10 09:30 5.91 908 9820 (2008) 44 (1956) 1430 189 305 433 537 890 1520 1740 3710 6330
2026-04-10 08:30 5.90 900 9820 (2008) 44 (1956) 1430 189 305 433 537 890 1520 1740 3710 6330
2026-04-10 07:30 5.91 908 9820 (2008) 44 (1956) 1430 189 305 433 537 890 1520 1740 3710 6330
2026-04-10 06:30 5.93 925 9820 (2008) 44 (1956) 1430 189 305 433 537 890 1520 1740 3710 6330
2026-04-10 05:30 5.93 925 9820 (2008) 44 (1956) 1430 189 305 433 537 890 1520 1740 3710 6330
2026-04-10 04:30 5.92 917 9820 (2008) 44 (1956) 1430 189 305 433 537 890 1520 1740 3710 6330
2026-04-10 03:30 5.93 925 9820 (2008) 44 (1956) 1430 189 305 433 537 890 1520 1740 3710 6330
2026-04-10 02:30 5.94 934 9820 (2008) 44 (1956) 1430 189 305 433 537 890 1520 1740 3710 6330
2026-04-10 01:30 5.92 917 9820 (2008) 44 (1956) 1430 189 305 433 537 890 1520 1740 3710 6330
2026-04-10 00:30 5.94 934 9820 (2008) 44 (1956) 1430 189 305 433 537 890 1520 1740 3710 6330
2026-04-09 23:30 5.93 925 9820 (2008) 44 (1956) 1430 189 305 433 537 890 1520 1740 3710 6330
2026-04-09 22:30 5.95 942 15800 (1986) 40 (1956) 1480 196 315 458 528 908 1670 1870 2520 4070
2026-04-09 21:30 5.98 968 15800 (1986) 40 (1956) 1480 196 315 458 528 908 1670 1870 2520 4070
2026-04-09 20:30 5.97 960 15800 (1986) 40 (1956) 1480 196 315 458 528 908 1670 1870 2520 4070
2026-04-09 19:30 5.97 960 15800 (1986) 40 (1956) 1480 196 315 458 528 908 1670 1870 2520 4070
2026-04-09 18:30 5.99 977 15800 (1986) 40 (1956) 1480 196 315 458 528 908 1670 1870 2520 4070
2026-04-09 17:30 5.98 968 15800 (1986) 40 (1956) 1480 196 315 458 528 908 1670 1870 2520 4070
2026-04-09 16:30 5.99 977 15800 (1986) 40 (1956) 1480 196 315 458 528 908 1670 1870 2520 4070
2026-04-09 15:30 6.01 995 15800 (1986) 40 (1956) 1480 196 315 458 528 908 1670 1870 2520 4070
2026-04-09 14:30 6.02 1000 15800 (1986) 40 (1956) 1480 196 315 458 528 908 1670 1870 2520 4070
2026-04-09 13:30 6.01 995 15800 (1986) 40 (1956) 1480 196 315 458 528 908 1670 1870 2520 4070
2026-04-09 12:30 6.06 1040 15800 (1986) 40 (1956) 1480 196 315 458 528 908 1670 1870 2520 4070
2026-04-09 11:30 6.04 1020 15800 (1986) 40 (1956) 1480 196 315 458 528 908 1670 1870 2520 4070
2026-04-09 10:30 6.06 1040 15800 (1986) 40 (1956) 1480 196 315 458 528 908 1670 1870 2520 4070
2026-04-09 09:30 6.07 1050 15800 (1986) 40 (1956) 1480 196 315 458 528 908 1670 1870 2520 4070
2026-04-09 08:30 6.08 1060 15800 (1986) 40 (1956) 1480 196 315 458 528 908 1670 1870 2520 4070
2026-04-09 07:30 6.10 1080 15800 (1986) 40 (1956) 1480 196 315 458 528 908 1670 1870 2520 4070
2026-04-09 06:30 6.09 1070 15800 (1986) 40 (1956) 1480 196 315 458 528 908 1670 1870 2520 4070
2026-04-09 05:30 6.11 1090 15800 (1986) 40 (1956) 1480 196 315 458 528 908 1670 1870 2520 4070
2026-04-09 04:30 6.11 1090 15800 (1986) 40 (1956) 1480 196 315 458 528 908 1670 1870 2520 4070
2026-04-09 03:30 6.13 1110 15800 (1986) 40 (1956) 1480 196 315 458 528 908 1670 1870 2520 4070
2026-04-09 02:30 6.13 1110 15800 (1986) 40 (1956) 1480 196 315 458 528 908 1670 1870 2520 4070
2026-04-09 01:30 6.13 1110 15800 (1986) 40 (1956) 1480 196 315 458 528 908 1670 1870 2520 4070
2026-04-09 00:30 6.14 1120 15800 (1986) 40 (1956) 1480 196 315 458 528 908 1670 1870 2520 4070
2026-04-08 23:30 6.16 1140 15800 (1986) 40 (1956) 1480 196 315 458 528 908 1670 1870 2520 4070
2026-04-08 22:30 6.14 1120 6050 (1965) 37 (1956) 1210 209 293 451 515 934 1520 1760 2680 3050
2026-04-08 21:30 6.16 1140 6050 (1965) 37 (1956) 1210 209 293 451 515 934 1520 1760 2680 3050
2026-04-08 20:30 6.17 1150 6050 (1965) 37 (1956) 1210 209 293 451 515 934 1520 1760 2680 3050
2026-04-08 19:30 6.18 1160 6050 (1965) 37 (1956) 1210 209 293 451 515 934 1520 1760 2680 3050
2026-04-08 18:30 6.18 1160 6050 (1965) 37 (1956) 1210 209 293 451 515 934 1520 1760 2680 3050
2026-04-08 17:30 6.19 1170 6050 (1965) 37 (1956) 1210 209 293 451 515 934 1520 1760 2680 3050
2026-04-08 15:30 6.21 1190 6050 (1965) 37 (1956) 1210 209 293 451 515 934 1520 1760 2680 3050
2026-04-08 14:30 6.24 1220 6050 (1965) 37 (1956) 1210 209 293 451 515 934 1520 1760 2680 3050
2026-04-08 13:30 6.25 1230 6050 (1965) 37 (1956) 1210 209 293 451 515 934 1520 1760 2680 3050
2026-04-08 12:30 6.25 1230 6050 (1965) 37 (1956) 1210 209 293 451 515 934 1520 1760 2680 3050
2026-04-08 11:30 6.28 1260 6050 (1965) 37 (1956) 1210 209 293 451 515 934 1520 1760 2680 3050
2026-04-08 10:30 6.28 1260 6050 (1965) 37 (1956) 1210 209 293 451 515 934 1520 1760 2680 3050
2026-04-08 09:30 6.29 1270 6050 (1965) 37 (1956) 1210 209 293 451 515 934 1520 1760 2680 3050
2026-04-08 08:30 6.30 1280 6050 (1965) 37 (1956) 1210 209 293 451 515 934 1520 1760 2680 3050
2026-04-08 07:30 6.31 1290 6050 (1965) 37 (1956) 1210 209 293 451 515 934 1520 1760 2680 3050
2026-04-08 06:30 6.32 1300 6050 (1965) 37 (1956) 1210 209 293 451 515 934 1520 1760 2680 3050
2026-04-08 05:30 6.33 1310 6050 (1965) 37 (1956) 1210 209 293 451 515 934 1520 1760 2680 3050
2026-04-08 04:30 6.35 1330 6050 (1965) 37 (1956) 1210 209 293 451 515 934 1520 1760 2680 3050
2026-04-08 03:30 6.36 1340 6050 (1965) 37 (1956) 1210 209 293 451 515 934 1520 1760 2680 3050
2026-04-08 02:30 6.36 1340 6050 (1965) 37 (1956) 1210 209 293 451 515 934 1520 1760 2680 3050
2026-04-08 01:30 6.37 1350 6050 (1965) 37 (1956) 1210 209 293 451 515 934 1520 1760 2680 3050
2026-04-08 00:30 6.37 1350 6050 (1965) 37 (1956) 1210 209 293 451 515 934 1520 1760 2680 3050
2026-04-07 23:30 6.41 1400 6050 (1965) 37 (1956) 1210 209 293 451 515 934 1520 1760 2680 3050
2026-04-07 22:30 6.42 1410 11000 (1965) 38 (1956) 1320 208 308 437 480 886 1660 1960 2860 3660
2026-04-07 21:30 6.43 1420 11000 (1965) 38 (1956) 1320 208 308 437 480 886 1660 1960 2860 3660
2026-04-07 20:30 6.46 1460 11000 (1965) 38 (1956) 1320 208 308 437 480 886 1660 1960 2860 3660
2026-04-07 19:30 6.46 1460 11000 (1965) 38 (1956) 1320 208 308 437 480 886 1660 1960 2860 3660
2026-04-07 18:30 6.47 1470 11000 (1965) 38 (1956) 1320 208 308 437 480 886 1660 1960 2860 3660
2026-04-07 17:30 6.48 1480 11000 (1965) 38 (1956) 1320 208 308 437 480 886 1660 1960 2860 3660
2026-04-07 16:30 6.50 1500 11000 (1965) 38 (1956) 1320 208 308 437 480 886 1660 1960 2860 3660
2026-04-07 15:30 6.52 1530 11000 (1965) 38 (1956) 1320 208 308 437 480 886 1660 1960 2860 3660
2026-04-07 14:30 6.53 1540 11000 (1965) 38 (1956) 1320 208 308 437 480 886 1660 1960 2860 3660
2026-04-07 13:30 6.56 1580 11000 (1965) 38 (1956) 1320 208 308 437 480 886 1660 1960 2860 3660
2026-04-07 12:30 6.57 1590 11000 (1965) 38 (1956) 1320 208 308 437 480 886 1660 1960 2860 3660
2026-04-07 11:30 6.60 1630 11000 (1965) 38 (1956) 1320 208 308 437 480 886 1660 1960 2860 3660
2026-04-07 10:30 6.61 1640 11000 (1965) 38 (1956) 1320 208 308 437 480 886 1660 1960 2860 3660
2026-04-07 09:30 6.63 1660 11000 (1965) 38 (1956) 1320 208 308 437 480 886 1660 1960 2860 3660
2026-04-07 08:30 6.64 1680 11000 (1965) 38 (1956) 1320 208 308 437 480 886 1660 1960 2860 3660
2026-04-07 07:30 6.67 1710 11000 (1965) 38 (1956) 1320 208 308 437 480 886 1660 1960 2860 3660
2026-04-07 06:30 6.69 1740 11000 (1965) 38 (1956) 1320 208 308 437 480 886 1660 1960 2860 3660
2026-04-07 05:30 6.70 1750 11000 (1965) 38 (1956) 1320 208 308 437 480 886 1660 1960 2860 3660
2026-04-07 04:30 6.73 1790 11000 (1965) 38 (1956) 1320 208 308 437 480 886 1660 1960 2860 3660
2026-04-07 03:30 6.74 1810 11000 (1965) 38 (1956) 1320 208 308 437 480 886 1660 1960 2860 3660
2026-04-07 02:30 6.76 1830 11000 (1965) 38 (1956) 1320 208 308 437 480 886 1660 1960 2860 3660
2026-04-07 01:30 6.80 1890 11000 (1965) 38 (1956) 1320 208 308 437 480 886 1660 1960 2860 3660
2026-04-07 00:30 6.82 1920 11000 (1965) 38 (1956) 1320 208 308 437 480 886 1660 1960 2860 3660
2026-04-06 23:30 6.85 1960 11000 (1965) 38 (1956) 1320 208 308 437 480 886 1660 1960 2860 3660
2026-04-06 22:30 6.87 1990 8670 (1965) 41 (1956) 1370 223 323 415 490 934 1600 1730 3000 4810
2026-04-06 21:30 6.89 2020 8670 (1965) 41 (1956) 1370 223 323 415 490 934 1600 1730 3000 4810
2026-04-06 20:30 6.92 2070 8670 (1965) 41 (1956) 1370 223 323 415 490 934 1600 1730 3000 4810
2026-04-06 19:30 6.95 2110 8670 (1965) 41 (1956) 1370 223 323 415 490 934 1600 1730 3000 4810
2026-04-06 18:30 6.97 2140 8670 (1965) 41 (1956) 1370 223 323 415 490 934 1600 1730 3000 4810
2026-04-06 17:30 6.99 2170 8670 (1965) 41 (1956) 1370 223 323 415 490 934 1600 1730 3000 4810
2026-04-06 16:30 7.04 2250 8670 (1965) 41 (1956) 1370 223 323 415 490 934 1600 1730 3000 4810
2026-04-06 15:30 7.06 2280 8670 (1965) 41 (1956) 1370 223 323 415 490 934 1600 1730 3000 4810
2026-04-06 14:30 7.09 2330 8670 (1965) 41 (1956) 1370 223 323 415 490 934 1600 1730 3000 4810
2026-04-06 13:30 7.13 2390 8670 (1965) 41 (1956) 1370 223 323 415 490 934 1600 1730 3000 4810
2026-04-06 12:30 7.16 2440 8670 (1965) 41 (1956) 1370 223 323 415 490 934 1600 1730 3000 4810
2026-04-06 11:30 7.22 2540 8670 (1965) 41 (1956) 1370 223 323 415 490 934 1600 1730 3000 4810
2026-04-06 10:30 7.25 2590 8670 (1965) 41 (1956) 1370 223 323 415 490 934 1600 1730 3000 4810
2026-04-06 09:30 7.28 2640 8670 (1965) 41 (1956) 1370 223 323 415 490 934 1600 1730 3000 4810
2026-04-06 08:30 7.33 2730 8670 (1965) 41 (1956) 1370 223 323 415 490 934 1600 1730 3000 4810
2026-04-06 07:30 7.37 2800 8670 (1965) 41 (1956) 1370 223 323 415 490 934 1600 1730 3000 4810
2026-04-06 06:30 7.42 2880 8670 (1965) 41 (1956) 1370 223 323 415 490 934 1600 1730 3000 4810
2026-04-06 05:30 7.47 2970 8670 (1965) 41 (1956) 1370 223 323 415 490 934 1600 1730 3000 4810
2026-04-06 03:30 7.59 3200 8670 (1965) 41 (1956) 1370 223 323 415 490 934 1600 1730 3000 4810
2026-04-06 02:30 7.64 3290 8670 (1965) 41 (1956) 1370 223 323 415 490 934 1600 1730 3000 4810
2026-04-06 01:30 7.70 3400 8670 (1965) 41 (1956) 1370 223 323 415 490 934 1600 1730 3000 4810
2026-04-06 00:30 7.76 3510 8670 (1965) 41 (1956) 1370 223 323 415 490 934 1600 1730 3000 4810
2026-04-05 23:30 7.83 3640 8670 (1965) 41 (1956) 1370 223 323 415 490 934 1600 1730 3000 4810
2026-04-05 22:30 7.91 3790 17700 (1957) 41 (1956) 1600 236 328 408 495 929 1710 1800 3940 5460
2026-04-05 21:30 8.00 3960 17700 (1957) 41 (1956) 1600 236 328 408 495 929 1710 1800 3940 5460
2026-04-05 20:30 8.09 4130 17700 (1957) 41 (1956) 1600 236 328 408 495 929 1710 1800 3940 5460
2026-04-05 19:30 8.19 4320 17700 (1957) 41 (1956) 1600 236 328 408 495 929 1710 1800 3940 5460
2026-04-05 18:30 8.29 4510 17700 (1957) 41 (1956) 1600 236 328 408 495 929 1710 1800 3940 5460
2026-04-05 17:30 8.38 4680 17700 (1957) 41 (1956) 1600 236 328 408 495 929 1710 1800 3940 5460
2026-04-05 16:30 8.50 4910 17700 (1957) 41 (1956) 1600 236 328 408 495 929 1710 1800 3940 5460
2026-04-05 15:30 8.58 5060 17700 (1957) 41 (1956) 1600 236 328 408 495 929 1710 1800 3940 5460
2026-04-05 14:30 8.63 5160 17700 (1957) 41 (1956) 1600 236 328 408 495 929 1710 1800 3940 5460
2026-04-05 13:30 8.63 5160 17700 (1957) 41 (1956) 1600 236 328 408 495 929 1710 1800 3940 5460
2026-04-05 12:30 8.57 5050 17700 (1957) 41 (1956) 1600 236 328 408 495 929 1710 1800 3940 5460
2026-04-05 11:30 8.40 4720 17700 (1957) 41 (1956) 1600 236 328 408 495 929 1710 1800 3940 5460
2026-04-05 10:30 8.13 4200 17700 (1957) 41 (1956) 1600 236 328 408 495 929 1710 1800 3940 5460
2026-04-05 09:30 7.63 3270 17700 (1957) 41 (1956) 1600 236 328 408 495 929 1710 1800 3940 5460
2026-04-05 08:30 6.89 2020 17700 (1957) 41 (1956) 1600 236 328 408 495 929 1710 1800 3940 5460
2026-04-05 07:30 6.20 1180 17700 (1957) 41 (1956) 1600 236 328 408 495 929 1710 1800 3940 5460
2026-04-05 06:30 6.04 1020 17700 (1957) 41 (1956) 1600 236 328 408 495 929 1710 1800 3940 5460
2026-04-05 05:30 6.03 1010 17700 (1957) 41 (1956) 1600 236 328 408 495 929 1710 1800 3940 5460
2026-04-05 04:30 6.02 1000 17700 (1957) 41 (1956) 1600 236 328 408 495 929 1710 1800 3940 5460
2026-04-05 03:30 6.00 986 17700 (1957) 41 (1956) 1600 236 328 408 495 929 1710 1800 3940 5460
2026-04-05 02:30 6.00 986 17700 (1957) 41 (1956) 1600 236 328 408 495 929 1710 1800 3940 5460
2026-04-05 01:30 5.99 977 17700 (1957) 41 (1956) 1600 236 328 408 495 929 1710 1800 3940 5460
2026-04-05 00:30 5.98 968 17700 (1957) 41 (1956) 1600 236 328 408 495 929 1710 1800 3940 5460
2026-04-04 23:30 5.98 968 17700 (1957) 41 (1956) 1600 236 328 408 495 929 1710 1800 3940 5460

A total of 727 rows are displayed for years 1936 through 2024.